<?xml version='1.0' encoding='UTF-8'?>
<gpx version="1.1" creator="https://www.komoot.de" xmlns="http://www.topografix.com/GPX/1/1" xmlns:xsi="http://www.w3.org/2001/XMLSchema-instance" xsi:schemaLocation="http://www.topografix.com/GPX/1/1 http://www.topografix.com/GPX/1/1/gpx.xsd">
  <metadata>
    <name>50_700HerznachMoehlin</name>
    <author>
      <link href="https://www.komoot.de">
        <text>komoot</text>
        <type>text/html</type>
      </link>
    </author>
  </metadata>
  <trk>
    <name>50_700HerznachMoehlin</name>
    <trkseg>
      <trkpt lat="47.541953" lon="7.871286">
        <ele>343.130545</ele>
        <time>2021-11-11T20:37:40.245Z</time>
      </trkpt>
      <trkpt lat="47.541953" lon="7.871286">
        <ele>343.130545</ele>
        <time>2021-11-11T20:37:40.259Z</time>
      </trkpt>
      <trkpt lat="47.542039" lon="7.871556">
        <ele>343.130545</ele>
        <time>2021-11-11T20:37:45.128Z</time>
      </trkpt>
      <trkpt lat="47.542067" lon="7.871664">
        <ele>343.130545</ele>
        <time>2021-11-11T20:37:46.821Z</time>
      </trkpt>
      <trkpt lat="47.542091" lon="7.871721">
        <ele>343.130545</ele>
        <time>2021-11-11T20:37:47.470Z</time>
      </trkpt>
      <trkpt lat="47.542218" lon="7.871866">
        <ele>343.130545</ele>
        <time>2021-11-11T20:37:53.032Z</time>
      </trkpt>
      <trkpt lat="47.542394" lon="7.872341">
        <ele>343.130545</ele>
        <time>2021-11-11T20:38:03.772Z</time>
      </trkpt>
      <trkpt lat="47.542436" lon="7.872494">
        <ele>343.465150</ele>
        <time>2021-11-11T20:38:07.266Z</time>
      </trkpt>
      <trkpt lat="47.542537" lon="7.872430">
        <ele>344.046102</ele>
        <time>2021-11-11T20:38:09.447Z</time>
      </trkpt>
      <trkpt lat="47.542565" lon="7.872415">
        <ele>344.203565</ele>
        <time>2021-11-11T20:38:10.764Z</time>
      </trkpt>
      <trkpt lat="47.542714" lon="7.872334">
        <ele>345.042933</ele>
        <time>2021-11-11T20:38:16.691Z</time>
      </trkpt>
      <trkpt lat="47.542814" lon="7.872280">
        <ele>345.605823</ele>
        <time>2021-11-11T20:38:19.647Z</time>
      </trkpt>
      <trkpt lat="47.542919" lon="7.872226">
        <ele>346.193626</ele>
        <time>2021-11-11T20:38:23.550Z</time>
      </trkpt>
      <trkpt lat="47.543013" lon="7.872182">
        <ele>346.714971</ele>
        <time>2021-11-11T20:38:27.181Z</time>
      </trkpt>
      <trkpt lat="47.543233" lon="7.872082">
        <ele>347.931977</ele>
        <time>2021-11-11T20:38:34.279Z</time>
      </trkpt>
      <trkpt lat="47.543251" lon="7.872152">
        <ele>348.199388</ele>
        <time>2021-11-11T20:38:37.693Z</time>
      </trkpt>
      <trkpt lat="47.543332" lon="7.872237">
        <ele>348.724342</ele>
        <time>2021-11-11T20:38:41.104Z</time>
      </trkpt>
      <trkpt lat="47.544390" lon="7.872423">
        <ele>354.868319</ele>
        <time>2021-11-11T20:39:22.735Z</time>
      </trkpt>
      <trkpt lat="47.544883" lon="7.872555">
        <ele>358.304347</ele>
        <time>2021-11-11T20:39:45.078Z</time>
      </trkpt>
      <trkpt lat="47.545131" lon="7.872664">
        <ele>360.078536</ele>
        <time>2021-11-11T20:39:56.082Z</time>
      </trkpt>
      <trkpt lat="47.545375" lon="7.872836">
        <ele>361.931801</ele>
        <time>2021-11-11T20:40:07.023Z</time>
      </trkpt>
      <trkpt lat="47.545478" lon="7.872968">
        <ele>362.865868</ele>
        <time>2021-11-11T20:40:13.830Z</time>
      </trkpt>
      <trkpt lat="47.545515" lon="7.873015">
        <ele>363.200145</ele>
        <time>2021-11-11T20:40:15.787Z</time>
      </trkpt>
      <trkpt lat="47.545746" lon="7.873302">
        <ele>365.214847</ele>
        <time>2021-11-11T20:40:28.986Z</time>
      </trkpt>
      <trkpt lat="47.545934" lon="7.873549">
        <ele>366.622324</ele>
        <time>2021-11-11T20:40:39.087Z</time>
      </trkpt>
      <trkpt lat="47.546077" lon="7.873763">
        <ele>367.760834</ele>
        <time>2021-11-11T20:40:48.283Z</time>
      </trkpt>
      <trkpt lat="47.546135" lon="7.873859">
        <ele>368.247949</ele>
        <time>2021-11-11T20:40:51.522Z</time>
      </trkpt>
      <trkpt lat="47.546309" lon="7.874154">
        <ele>369.729119</ele>
        <time>2021-11-11T20:41:02.637Z</time>
      </trkpt>
      <trkpt lat="47.547126" lon="7.875801">
        <ele>375.883508</ele>
        <time>2021-11-11T20:41:48.398Z</time>
      </trkpt>
      <trkpt lat="47.547574" lon="7.876801">
        <ele>377.450887</ele>
        <time>2021-11-11T20:42:07.393Z</time>
      </trkpt>
      <trkpt lat="47.547992" lon="7.877974">
        <ele>377.601118</ele>
        <time>2021-11-11T20:42:20.194Z</time>
      </trkpt>
      <trkpt lat="47.548234" lon="7.878638">
        <ele>376.187642</ele>
        <time>2021-11-11T20:42:25.506Z</time>
      </trkpt>
      <trkpt lat="47.548422" lon="7.878959">
        <ele>375.391582</ele>
        <time>2021-11-11T20:42:28.349Z</time>
      </trkpt>
      <trkpt lat="47.548718" lon="7.879258">
        <ele>374.397395</ele>
        <time>2021-11-11T20:42:31.887Z</time>
      </trkpt>
      <trkpt lat="47.549140" lon="7.879391">
        <ele>373.028057</ele>
        <time>2021-11-11T20:42:36.074Z</time>
      </trkpt>
      <trkpt lat="47.549318" lon="7.879398">
        <ele>372.285134</ele>
        <time>2021-11-11T20:42:37.701Z</time>
      </trkpt>
      <trkpt lat="47.549327" lon="7.879547">
        <ele>371.863861</ele>
        <time>2021-11-11T20:42:38.687Z</time>
      </trkpt>
      <trkpt lat="47.549726" lon="7.880786">
        <ele>367.997953</ele>
        <time>2021-11-11T20:42:47.622Z</time>
      </trkpt>
      <trkpt lat="47.549927" lon="7.881490">
        <ele>365.873622</ele>
        <time>2021-11-11T20:42:52.654Z</time>
      </trkpt>
      <trkpt lat="47.550234" lon="7.883221">
        <ele>361.574981</ele>
        <time>2021-11-11T20:43:05.055Z</time>
      </trkpt>
      <trkpt lat="47.550332" lon="7.884727">
        <ele>357.260625</ele>
        <time>2021-11-11T20:43:14.899Z</time>
      </trkpt>
      <trkpt lat="47.550391" lon="7.885109">
        <ele>355.941750</ele>
        <time>2021-11-11T20:43:17.431Z</time>
      </trkpt>
      <trkpt lat="47.550548" lon="7.885799">
        <ele>353.491110</ele>
        <time>2021-11-11T20:43:22.036Z</time>
      </trkpt>
      <trkpt lat="47.550677" lon="7.886476">
        <ele>351.123579</ele>
        <time>2021-11-11T20:43:26.466Z</time>
      </trkpt>
      <trkpt lat="47.550758" lon="7.887295">
        <ele>347.843078</ele>
        <time>2021-11-11T20:43:31.608Z</time>
      </trkpt>
      <trkpt lat="47.550789" lon="7.887816">
        <ele>345.709168</ele>
        <time>2021-11-11T20:43:34.840Z</time>
      </trkpt>
      <trkpt lat="47.550831" lon="7.888611">
        <ele>342.455670</ele>
        <time>2021-11-11T20:43:39.796Z</time>
      </trkpt>
      <trkpt lat="47.550833" lon="7.889069">
        <ele>340.587005</ele>
        <time>2021-11-11T20:43:42.606Z</time>
      </trkpt>
      <trkpt lat="47.550915" lon="7.890600">
        <ele>334.508796</ele>
        <time>2021-11-11T20:43:51.999Z</time>
      </trkpt>
      <trkpt lat="47.550904" lon="7.891725">
        <ele>330.075876</ele>
        <time>2021-11-11T20:43:59.003Z</time>
      </trkpt>
      <trkpt lat="47.550892" lon="7.893176">
        <ele>327.163486</ele>
        <time>2021-11-11T20:44:08.615Z</time>
      </trkpt>
      <trkpt lat="47.550908" lon="7.894308">
        <ele>325.236883</ele>
        <time>2021-11-11T20:44:17.820Z</time>
      </trkpt>
      <trkpt lat="47.550878" lon="7.895158">
        <ele>324.208519</ele>
        <time>2021-11-11T20:44:25.005Z</time>
      </trkpt>
      <trkpt lat="47.550838" lon="7.895509">
        <ele>323.864342</ele>
        <time>2021-11-11T20:44:28.169Z</time>
      </trkpt>
      <trkpt lat="47.550660" lon="7.896255">
        <ele>323.099304</ele>
        <time>2021-11-11T20:44:34.658Z</time>
      </trkpt>
      <trkpt lat="47.550639" lon="7.896345">
        <ele>323.007231</ele>
        <time>2021-11-11T20:44:35.845Z</time>
      </trkpt>
      <trkpt lat="47.550648" lon="7.896481">
        <ele>322.875104</ele>
        <time>2021-11-11T20:44:36.800Z</time>
      </trkpt>
      <trkpt lat="47.550819" lon="7.898109">
        <ele>319.849497</ele>
        <time>2021-11-11T20:44:48.548Z</time>
      </trkpt>
      <trkpt lat="47.550801" lon="7.900244">
        <ele>314.439090</ele>
        <time>2021-11-11T20:45:02.385Z</time>
      </trkpt>
      <trkpt lat="47.550769" lon="7.901362">
        <ele>311.448833</ele>
        <time>2021-11-11T20:45:09.657Z</time>
      </trkpt>
      <trkpt lat="47.550757" lon="7.901591">
        <ele>310.835047</ele>
        <time>2021-11-11T20:45:11.793Z</time>
      </trkpt>
      <trkpt lat="47.550688" lon="7.902451">
        <ele>308.520731</ele>
        <time>2021-11-11T20:45:20.227Z</time>
      </trkpt>
      <trkpt lat="47.550498" lon="7.903445">
        <ele>307.107539</ele>
        <time>2021-11-11T20:45:30.644Z</time>
      </trkpt>
      <trkpt lat="47.550302" lon="7.904164">
        <ele>306.094501</ele>
        <time>2021-11-11T20:45:38.991Z</time>
      </trkpt>
      <trkpt lat="47.550025" lon="7.904774">
        <ele>305.134005</ele>
        <time>2021-11-11T20:45:47.475Z</time>
      </trkpt>
      <trkpt lat="47.549868" lon="7.905010">
        <ele>304.922148</ele>
        <time>2021-11-11T20:45:51.481Z</time>
      </trkpt>
      <trkpt lat="47.549867" lon="7.905155">
        <ele>304.928528</ele>
        <time>2021-11-11T20:45:53.211Z</time>
      </trkpt>
      <trkpt lat="47.549793" lon="7.905202">
        <ele>304.933777</ele>
        <time>2021-11-11T20:45:54.741Z</time>
      </trkpt>
      <trkpt lat="47.549674" lon="7.905336">
        <ele>304.943520</ele>
        <time>2021-11-11T20:45:57.534Z</time>
      </trkpt>
      <trkpt lat="47.549519" lon="7.906378">
        <ele>304.990469</ele>
        <time>2021-11-11T20:46:11.871Z</time>
      </trkpt>
      <trkpt lat="47.549039" lon="7.907742">
        <ele>305.542825</ele>
        <time>2021-11-11T20:46:36.178Z</time>
      </trkpt>
      <trkpt lat="47.548638" lon="7.908599">
        <ele>306.445555</ele>
        <time>2021-11-11T20:46:55.319Z</time>
      </trkpt>
      <trkpt lat="47.548279" lon="7.909060">
        <ele>307.054879</ele>
        <time>2021-11-11T20:47:07.551Z</time>
      </trkpt>
      <trkpt lat="47.548222" lon="7.909154">
        <ele>307.164271</ele>
        <time>2021-11-11T20:47:10.096Z</time>
      </trkpt>
      <trkpt lat="47.547859" lon="7.909845">
        <ele>307.750043</ele>
        <time>2021-11-11T20:47:23.971Z</time>
      </trkpt>
      <trkpt lat="47.547648" lon="7.910267">
        <ele>308.070407</ele>
        <time>2021-11-11T20:47:32.051Z</time>
      </trkpt>
      <trkpt lat="47.547348" lon="7.911011">
        <ele>308.599080</ele>
        <time>2021-11-11T20:47:41.570Z</time>
      </trkpt>
      <trkpt lat="47.546526" lon="7.912513">
        <ele>313.641745</ele>
        <time>2021-11-11T20:48:08.577Z</time>
      </trkpt>
      <trkpt lat="47.546113" lon="7.913536">
        <ele>317.819773</ele>
        <time>2021-11-11T20:48:44.666Z</time>
      </trkpt>
      <trkpt lat="47.546064" lon="7.913662">
        <ele>318.355083</ele>
        <time>2021-11-11T20:48:53.509Z</time>
      </trkpt>
      <trkpt lat="47.545846" lon="7.913439">
        <ele>321.136001</ele>
        <time>2021-11-11T20:49:07.450Z</time>
      </trkpt>
      <trkpt lat="47.545803" lon="7.913417">
        <ele>321.613542</ele>
        <time>2021-11-11T20:49:12.310Z</time>
      </trkpt>
      <trkpt lat="47.545760" lon="7.913396">
        <ele>322.088818</ele>
        <time>2021-11-11T20:49:17.446Z</time>
      </trkpt>
      <trkpt lat="47.545512" lon="7.913459">
        <ele>324.730135</ele>
        <time>2021-11-11T20:49:31.084Z</time>
      </trkpt>
      <trkpt lat="47.545283" lon="7.913975">
        <ele>329.105820</ele>
        <time>2021-11-11T20:50:01.626Z</time>
      </trkpt>
      <trkpt lat="47.544842" lon="7.914607">
        <ele>335.546678</ele>
        <time>2021-11-11T20:50:41.526Z</time>
      </trkpt>
      <trkpt lat="47.544667" lon="7.914777">
        <ele>337.196037</ele>
        <time>2021-11-11T20:50:58.362Z</time>
      </trkpt>
      <trkpt lat="47.544535" lon="7.914938">
        <ele>337.230850</ele>
        <time>2021-11-11T20:51:02.653Z</time>
      </trkpt>
      <trkpt lat="47.544436" lon="7.915136">
        <ele>337.264715</ele>
        <time>2021-11-11T20:51:08.545Z</time>
      </trkpt>
      <trkpt lat="47.544381" lon="7.915381">
        <ele>337.300200</ele>
        <time>2021-11-11T20:51:11.117Z</time>
      </trkpt>
      <trkpt lat="47.544170" lon="7.916929">
        <ele>337.517248</ele>
        <time>2021-11-11T20:51:28.111Z</time>
      </trkpt>
      <trkpt lat="47.544062" lon="7.917335">
        <ele>337.516260</ele>
        <time>2021-11-11T20:51:32.136Z</time>
      </trkpt>
      <trkpt lat="47.544023" lon="7.917429">
        <ele>337.495592</ele>
        <time>2021-11-11T20:51:33.157Z</time>
      </trkpt>
      <trkpt lat="47.543882" lon="7.917804">
        <ele>337.415188</ele>
        <time>2021-11-11T20:51:37.258Z</time>
      </trkpt>
      <trkpt lat="47.543788" lon="7.917949">
        <ele>337.377531</ele>
        <time>2021-11-11T20:51:39.212Z</time>
      </trkpt>
      <trkpt lat="47.543490" lon="7.918167">
        <ele>337.285306</ele>
        <time>2021-11-11T20:51:44.164Z</time>
      </trkpt>
      <trkpt lat="47.543011" lon="7.918178">
        <ele>337.152372</ele>
        <time>2021-11-11T20:51:54.883Z</time>
      </trkpt>
      <trkpt lat="47.542951" lon="7.918203">
        <ele>337.135077</ele>
        <time>2021-11-11T20:51:57.560Z</time>
      </trkpt>
      <trkpt lat="47.542901" lon="7.918253">
        <ele>337.118337</ele>
        <time>2021-11-11T20:51:59.101Z</time>
      </trkpt>
      <trkpt lat="47.542847" lon="7.918520">
        <ele>337.066127</ele>
        <time>2021-11-11T20:52:05.721Z</time>
      </trkpt>
      <trkpt lat="47.542897" lon="7.919138">
        <ele>339.404951</ele>
        <time>2021-11-11T20:52:25.581Z</time>
      </trkpt>
      <trkpt lat="47.542830" lon="7.919388">
        <ele>340.558254</ele>
        <time>2021-11-11T20:52:34.990Z</time>
      </trkpt>
      <trkpt lat="47.542762" lon="7.919488">
        <ele>341.166854</ele>
        <time>2021-11-11T20:52:39.269Z</time>
      </trkpt>
      <trkpt lat="47.542663" lon="7.919567">
        <ele>341.881102</ele>
        <time>2021-11-11T20:52:52.125Z</time>
      </trkpt>
      <trkpt lat="47.542445" lon="7.919627">
        <ele>343.289475</ele>
        <time>2021-11-11T20:53:16.332Z</time>
      </trkpt>
      <trkpt lat="47.541893" lon="7.920117">
        <ele>347.376923</ele>
        <time>2021-11-11T20:54:25.210Z</time>
      </trkpt>
      <trkpt lat="47.541270" lon="7.921054">
        <ele>351.375220</ele>
        <time>2021-11-11T20:55:56.903Z</time>
      </trkpt>
      <trkpt lat="47.540576" lon="7.921805">
        <ele>354.860887</ele>
        <time>2021-11-11T20:57:15.018Z</time>
      </trkpt>
      <trkpt lat="47.540468" lon="7.922009">
        <ele>355.570680</ele>
        <time>2021-11-11T20:57:30.480Z</time>
      </trkpt>
      <trkpt lat="47.540426" lon="7.922257">
        <ele>356.159272</ele>
        <time>2021-11-11T20:57:45.629Z</time>
      </trkpt>
      <trkpt lat="47.540276" lon="7.922517">
        <ele>356.886609</ele>
        <time>2021-11-11T20:58:05.754Z</time>
      </trkpt>
      <trkpt lat="47.540166" lon="7.922583">
        <ele>357.260482</ele>
        <time>2021-11-11T20:58:15.998Z</time>
      </trkpt>
      <trkpt lat="47.539357" lon="7.923066">
        <ele>360.008246</ele>
        <time>2021-11-11T20:59:34.193Z</time>
      </trkpt>
      <trkpt lat="47.538673" lon="7.923346">
        <ele>362.760280</ele>
        <time>2021-11-11T21:00:43.274Z</time>
      </trkpt>
      <trkpt lat="47.538225" lon="7.923716">
        <ele>365.411512</ele>
        <time>2021-11-11T21:01:38.535Z</time>
      </trkpt>
      <trkpt lat="47.537704" lon="7.924286">
        <ele>368.759357</ele>
        <time>2021-11-11T21:02:44.589Z</time>
      </trkpt>
      <trkpt lat="47.537368" lon="7.924418">
        <ele>370.556119</ele>
        <time>2021-11-11T21:03:18.500Z</time>
      </trkpt>
      <trkpt lat="47.537009" lon="7.924729">
        <ele>370.922918</ele>
        <time>2021-11-11T21:03:57.848Z</time>
      </trkpt>
      <trkpt lat="47.536706" lon="7.925193">
        <ele>371.138182</ele>
        <time>2021-11-11T21:04:09.577Z</time>
      </trkpt>
      <trkpt lat="47.536480" lon="7.925533">
        <ele>371.297290</ele>
        <time>2021-11-11T21:04:16.100Z</time>
      </trkpt>
      <trkpt lat="47.535703" lon="7.925981">
        <ele>371.405369</ele>
        <time>2021-11-11T21:04:29.073Z</time>
      </trkpt>
      <trkpt lat="47.535496" lon="7.926292">
        <ele>371.037642</ele>
        <time>2021-11-11T21:04:33.199Z</time>
      </trkpt>
      <trkpt lat="47.535366" lon="7.926580">
        <ele>370.745934</ele>
        <time>2021-11-11T21:04:36.595Z</time>
      </trkpt>
      <trkpt lat="47.535237" lon="7.926835">
        <ele>370.477631</ele>
        <time>2021-11-11T21:04:40.233Z</time>
      </trkpt>
      <trkpt lat="47.534394" lon="7.928043">
        <ele>369.820754</ele>
        <time>2021-11-11T21:05:03.462Z</time>
      </trkpt>
      <trkpt lat="47.534319" lon="7.928138">
        <ele>369.969484</ele>
        <time>2021-11-11T21:05:05.874Z</time>
      </trkpt>
      <trkpt lat="47.534250" lon="7.928183">
        <ele>370.083109</ele>
        <time>2021-11-11T21:05:08.032Z</time>
      </trkpt>
      <trkpt lat="47.534226" lon="7.928203">
        <ele>370.124611</ele>
        <time>2021-11-11T21:05:08.953Z</time>
      </trkpt>
      <trkpt lat="47.534168" lon="7.928273">
        <ele>370.237369</ele>
        <time>2021-11-11T21:05:11.487Z</time>
      </trkpt>
      <trkpt lat="47.533454" lon="7.928933">
        <ele>371.505814</ele>
        <time>2021-11-11T21:05:35.604Z</time>
      </trkpt>
      <trkpt lat="47.533316" lon="7.929060">
        <ele>371.750674</ele>
        <time>2021-11-11T21:05:38.775Z</time>
      </trkpt>
      <trkpt lat="47.532796" lon="7.929524">
        <ele>372.443069</ele>
        <time>2021-11-11T21:05:51.644Z</time>
      </trkpt>
      <trkpt lat="47.532584" lon="7.929704">
        <ele>372.668851</ele>
        <time>2021-11-11T21:05:58.615Z</time>
      </trkpt>
      <trkpt lat="47.532610" lon="7.929877">
        <ele>372.779415</ele>
        <time>2021-11-11T21:05:59.863Z</time>
      </trkpt>
      <trkpt lat="47.532726" lon="7.930299">
        <ele>373.063653</ele>
        <time>2021-11-11T21:06:07.190Z</time>
      </trkpt>
      <trkpt lat="47.532726" lon="7.930392">
        <ele>373.121669</ele>
        <time>2021-11-11T21:06:07.785Z</time>
      </trkpt>
      <trkpt lat="47.532599" lon="7.930581">
        <ele>373.288013</ele>
        <time>2021-11-11T21:06:12.885Z</time>
      </trkpt>
      <trkpt lat="47.532261" lon="7.931393">
        <ele>373.696062</ele>
        <time>2021-11-11T21:06:21.062Z</time>
      </trkpt>
      <trkpt lat="47.532237" lon="7.931571">
        <ele>373.647314</ele>
        <time>2021-11-11T21:06:23.996Z</time>
      </trkpt>
      <trkpt lat="47.532170" lon="7.931998">
        <ele>373.529582</ele>
        <time>2021-11-11T21:06:27.287Z</time>
      </trkpt>
      <trkpt lat="47.531984" lon="7.932581">
        <ele>373.356409</ele>
        <time>2021-11-11T21:06:32.993Z</time>
      </trkpt>
      <trkpt lat="47.531985" lon="7.932692">
        <ele>373.326596</ele>
        <time>2021-11-11T21:06:33.863Z</time>
      </trkpt>
      <trkpt lat="47.531984" lon="7.932824">
        <ele>373.291143</ele>
        <time>2021-11-11T21:06:35.014Z</time>
      </trkpt>
      <trkpt lat="47.531931" lon="7.933297">
        <ele>373.162375</ele>
        <time>2021-11-11T21:06:39.762Z</time>
      </trkpt>
      <trkpt lat="47.531622" lon="7.934065">
        <ele>373.168197</ele>
        <time>2021-11-11T21:06:48.907Z</time>
      </trkpt>
      <trkpt lat="47.531503" lon="7.934360">
        <ele>373.273895</ele>
        <time>2021-11-11T21:06:52.175Z</time>
      </trkpt>
      <trkpt lat="47.531505" lon="7.934420">
        <ele>373.292373</ele>
        <time>2021-11-11T21:06:52.857Z</time>
      </trkpt>
      <trkpt lat="47.531519" lon="7.934461">
        <ele>373.306504</ele>
        <time>2021-11-11T21:06:53.300Z</time>
      </trkpt>
      <trkpt lat="47.531561" lon="7.934562">
        <ele>373.342990</ele>
        <time>2021-11-11T21:06:54.308Z</time>
      </trkpt>
      <trkpt lat="47.531638" lon="7.934766">
        <ele>373.414876</ele>
        <time>2021-11-11T21:06:56.536Z</time>
      </trkpt>
      <trkpt lat="47.531548" lon="7.934833">
        <ele>373.460764</ele>
        <time>2021-11-11T21:06:58.228Z</time>
      </trkpt>
      <trkpt lat="47.531129" lon="7.935142">
        <ele>373.673996</ele>
        <time>2021-11-11T21:07:06.269Z</time>
      </trkpt>
      <trkpt lat="47.530759" lon="7.935410">
        <ele>373.872025</ele>
        <time>2021-11-11T21:07:14.290Z</time>
      </trkpt>
      <trkpt lat="47.530404" lon="7.935710">
        <ele>374.420774</ele>
        <time>2021-11-11T21:07:22.786Z</time>
      </trkpt>
      <trkpt lat="47.530062" lon="7.936223">
        <ele>375.074303</ele>
        <time>2021-11-11T21:07:33.146Z</time>
      </trkpt>
      <trkpt lat="47.530009" lon="7.936303">
        <ele>375.175904</ele>
        <time>2021-11-11T21:07:34.806Z</time>
      </trkpt>
      <trkpt lat="47.529827" lon="7.936525">
        <ele>375.492461</ele>
        <time>2021-11-11T21:07:39.322Z</time>
      </trkpt>
      <trkpt lat="47.529626" lon="7.936730">
        <ele>375.820121</ele>
        <time>2021-11-11T21:07:44.063Z</time>
      </trkpt>
      <trkpt lat="47.529468" lon="7.936891">
        <ele>376.077610</ele>
        <time>2021-11-11T21:07:47.652Z</time>
      </trkpt>
      <trkpt lat="47.529273" lon="7.937297">
        <ele>376.710554</ele>
        <time>2021-11-11T21:07:54.209Z</time>
      </trkpt>
      <trkpt lat="47.529185" lon="7.937741">
        <ele>377.424607</ele>
        <time>2021-11-11T21:08:00.859Z</time>
      </trkpt>
      <trkpt lat="47.529106" lon="7.937991">
        <ele>377.850546</ele>
        <time>2021-11-11T21:08:05.352Z</time>
      </trkpt>
      <trkpt lat="47.528958" lon="7.938333">
        <ele>378.477382</ele>
        <time>2021-11-11T21:08:12.000Z</time>
      </trkpt>
      <trkpt lat="47.528822" lon="7.938652">
        <ele>379.059553</ele>
        <time>2021-11-11T21:08:18.367Z</time>
      </trkpt>
      <trkpt lat="47.528658" lon="7.939111">
        <ele>379.860905</ele>
        <time>2021-11-11T21:08:27.619Z</time>
      </trkpt>
      <trkpt lat="47.528467" lon="7.939644">
        <ele>380.987585</ele>
        <time>2021-11-11T21:08:38.599Z</time>
      </trkpt>
      <trkpt lat="47.528286" lon="7.940193">
        <ele>382.379621</ele>
        <time>2021-11-11T21:08:49.961Z</time>
      </trkpt>
      <trkpt lat="47.528232" lon="7.940349">
        <ele>382.779051</ele>
        <time>2021-11-11T21:08:53.304Z</time>
      </trkpt>
      <trkpt lat="47.528193" lon="7.940482">
        <ele>383.109433</ele>
        <time>2021-11-11T21:08:56.072Z</time>
      </trkpt>
      <trkpt lat="47.528074" lon="7.940914">
        <ele>384.172501</ele>
        <time>2021-11-11T21:09:05.250Z</time>
      </trkpt>
      <trkpt lat="47.527738" lon="7.942144">
        <ele>387.404372</ele>
        <time>2021-11-11T21:09:31.584Z</time>
      </trkpt>
      <trkpt lat="47.527562" lon="7.942799">
        <ele>389.460701</ele>
        <time>2021-11-11T21:09:45.124Z</time>
      </trkpt>
      <trkpt lat="47.527379" lon="7.943358">
        <ele>391.272820</ele>
        <time>2021-11-11T21:09:57.486Z</time>
      </trkpt>
      <trkpt lat="47.527098" lon="7.943983">
        <ele>393.463092</ele>
        <time>2021-11-11T21:10:15.816Z</time>
      </trkpt>
      <trkpt lat="47.526465" lon="7.944912">
        <ele>398.148735</ele>
        <time>2021-11-11T21:10:49.727Z</time>
      </trkpt>
      <trkpt lat="47.526210" lon="7.945167">
        <ele>399.837266</ele>
        <time>2021-11-11T21:11:01.496Z</time>
      </trkpt>
      <trkpt lat="47.526080" lon="7.945282">
        <ele>400.668258</ele>
        <time>2021-11-11T21:11:07.152Z</time>
      </trkpt>
      <trkpt lat="47.525932" lon="7.945400">
        <ele>401.590671</ele>
        <time>2021-11-11T21:11:13.201Z</time>
      </trkpt>
      <trkpt lat="47.525755" lon="7.945530">
        <ele>402.674898</ele>
        <time>2021-11-11T21:11:20.491Z</time>
      </trkpt>
      <trkpt lat="47.525003" lon="7.946035">
        <ele>406.140102</ele>
        <time>2021-11-11T21:11:48.866Z</time>
      </trkpt>
      <trkpt lat="47.524540" lon="7.946546">
        <ele>408.224323</ele>
        <time>2021-11-11T21:12:05.310Z</time>
      </trkpt>
      <trkpt lat="47.524015" lon="7.947474">
        <ele>411.081091</ele>
        <time>2021-11-11T21:12:25.423Z</time>
      </trkpt>
      <trkpt lat="47.522871" lon="7.949842">
        <ele>417.517831</ele>
        <time>2021-11-11T21:13:18.633Z</time>
      </trkpt>
      <trkpt lat="47.522583" lon="7.950558">
        <ele>420.020433</ele>
        <time>2021-11-11T21:13:35.862Z</time>
      </trkpt>
      <trkpt lat="47.522498" lon="7.950609">
        <ele>420.428259</ele>
        <time>2021-11-11T21:13:39.175Z</time>
      </trkpt>
      <trkpt lat="47.522378" lon="7.950904">
        <ele>421.462427</ele>
        <time>2021-11-11T21:13:46.769Z</time>
      </trkpt>
      <trkpt lat="47.522155" lon="7.951451">
        <ele>423.381153</ele>
        <time>2021-11-11T21:14:02.155Z</time>
      </trkpt>
      <trkpt lat="47.521798" lon="7.952167">
        <ele>427.019795</ele>
        <time>2021-11-11T21:14:25.003Z</time>
      </trkpt>
      <trkpt lat="47.521310" lon="7.952331">
        <ele>430.313677</ele>
        <time>2021-11-11T21:14:49.296Z</time>
      </trkpt>
      <trkpt lat="47.520826" lon="7.952661">
        <ele>433.821040</ele>
        <time>2021-11-11T21:15:10.652Z</time>
      </trkpt>
      <trkpt lat="47.520575" lon="7.952713">
        <ele>435.489307</ele>
        <time>2021-11-11T21:15:21.900Z</time>
      </trkpt>
      <trkpt lat="47.520411" lon="7.952818">
        <ele>436.445856</ele>
        <time>2021-11-11T21:15:26.614Z</time>
      </trkpt>
      <trkpt lat="47.520338" lon="7.952889">
        <ele>436.859685</ele>
        <time>2021-11-11T21:15:32.340Z</time>
      </trkpt>
      <trkpt lat="47.520252" lon="7.953053">
        <ele>437.524091</ele>
        <time>2021-11-11T21:15:37.776Z</time>
      </trkpt>
      <trkpt lat="47.520178" lon="7.953220">
        <ele>438.163230</ele>
        <time>2021-11-11T21:15:41.181Z</time>
      </trkpt>
      <trkpt lat="47.519666" lon="7.954384">
        <ele>442.608271</ele>
        <time>2021-11-11T21:16:15.992Z</time>
      </trkpt>
      <trkpt lat="47.519622" lon="7.954528">
        <ele>443.114025</ele>
        <time>2021-11-11T21:16:18.061Z</time>
      </trkpt>
      <trkpt lat="47.519633" lon="7.954614">
        <ele>443.394108</ele>
        <time>2021-11-11T21:16:19.747Z</time>
      </trkpt>
      <trkpt lat="47.519421" lon="7.954816">
        <ele>444.410350</ele>
        <time>2021-11-11T21:16:28.114Z</time>
      </trkpt>
      <trkpt lat="47.518911" lon="7.955491">
        <ele>444.519536</ele>
        <time>2021-11-11T21:16:40.092Z</time>
      </trkpt>
      <trkpt lat="47.518757" lon="7.955695">
        <ele>444.552519</ele>
        <time>2021-11-11T21:16:42.531Z</time>
      </trkpt>
      <trkpt lat="47.518060" lon="7.957077">
        <ele>444.410499</ele>
        <time>2021-11-11T21:16:57.032Z</time>
      </trkpt>
      <trkpt lat="47.517852" lon="7.957582">
        <ele>444.031402</ele>
        <time>2021-11-11T21:17:01.623Z</time>
      </trkpt>
      <trkpt lat="47.517628" lon="7.958176">
        <ele>443.595378</ele>
        <time>2021-11-11T21:17:07.022Z</time>
      </trkpt>
      <trkpt lat="47.517484" lon="7.958473">
        <ele>443.361056</ele>
        <time>2021-11-11T21:17:09.937Z</time>
      </trkpt>
      <trkpt lat="47.517422" lon="7.958602">
        <ele>443.259581</ele>
        <time>2021-11-11T21:17:11.268Z</time>
      </trkpt>
      <trkpt lat="47.516682" lon="7.959949">
        <ele>443.552198</ele>
        <time>2021-11-11T21:17:28.354Z</time>
      </trkpt>
      <trkpt lat="47.516286" lon="7.960801">
        <ele>444.001563</ele>
        <time>2021-11-11T21:17:41.947Z</time>
      </trkpt>
      <trkpt lat="47.515417" lon="7.961931">
        <ele>445.592518</ele>
        <time>2021-11-11T21:18:08.149Z</time>
      </trkpt>
      <trkpt lat="47.515199" lon="7.962207">
        <ele>446.035719</ele>
        <time>2021-11-11T21:18:13.508Z</time>
      </trkpt>
      <trkpt lat="47.515187" lon="7.962222">
        <ele>446.059985</ele>
        <time>2021-11-11T21:18:14.412Z</time>
      </trkpt>
      <trkpt lat="47.514883" lon="7.962671">
        <ele>446.723468</ele>
        <time>2021-11-11T21:18:22.340Z</time>
      </trkpt>
      <trkpt lat="47.514842" lon="7.962822">
        <ele>446.893310</ele>
        <time>2021-11-11T21:18:24.521Z</time>
      </trkpt>
      <trkpt lat="47.514838" lon="7.962840">
        <ele>446.913085</ele>
        <time>2021-11-11T21:18:24.661Z</time>
      </trkpt>
      <trkpt lat="47.514838" lon="7.963162">
        <ele>447.314795</ele>
        <time>2021-11-11T21:18:29.078Z</time>
      </trkpt>
      <trkpt lat="47.514830" lon="7.963311">
        <ele>447.501968</ele>
        <time>2021-11-11T21:18:31.375Z</time>
      </trkpt>
      <trkpt lat="47.514809" lon="7.963450">
        <ele>447.680332</ele>
        <time>2021-11-11T21:18:32.882Z</time>
      </trkpt>
      <trkpt lat="47.514722" lon="7.963775">
        <ele>448.118113</ele>
        <time>2021-11-11T21:18:38.751Z</time>
      </trkpt>
      <trkpt lat="47.514703" lon="7.963873">
        <ele>448.245789</ele>
        <time>2021-11-11T21:18:40.000Z</time>
      </trkpt>
      <trkpt lat="47.514699" lon="7.963986">
        <ele>448.387488</ele>
        <time>2021-11-11T21:18:41.356Z</time>
      </trkpt>
      <trkpt lat="47.514665" lon="7.964238">
        <ele>448.709289</ele>
        <time>2021-11-11T21:18:45.904Z</time>
      </trkpt>
      <trkpt lat="47.514616" lon="7.964407">
        <ele>448.939596</ele>
        <time>2021-11-11T21:18:48.602Z</time>
      </trkpt>
      <trkpt lat="47.514429" lon="7.964841">
        <ele>449.584249</ele>
        <time>2021-11-11T21:18:56.610Z</time>
      </trkpt>
      <trkpt lat="47.514345" lon="7.964927">
        <ele>449.773600</ele>
        <time>2021-11-11T21:18:58.533Z</time>
      </trkpt>
      <trkpt lat="47.514266" lon="7.964968">
        <ele>449.928810</ele>
        <time>2021-11-11T21:19:00.519Z</time>
      </trkpt>
      <trkpt lat="47.514153" lon="7.964997">
        <ele>450.141446</ele>
        <time>2021-11-11T21:19:03.435Z</time>
      </trkpt>
      <trkpt lat="47.513988" lon="7.964994">
        <ele>450.662978</ele>
        <time>2021-11-11T21:19:06.876Z</time>
      </trkpt>
      <trkpt lat="47.513857" lon="7.965014">
        <ele>451.181448</ele>
        <time>2021-11-11T21:19:10.407Z</time>
      </trkpt>
      <trkpt lat="47.513799" lon="7.965061">
        <ele>451.441752</ele>
        <time>2021-11-11T21:19:12.223Z</time>
      </trkpt>
      <trkpt lat="47.513691" lon="7.965208">
        <ele>452.019307</ele>
        <time>2021-11-11T21:19:15.642Z</time>
      </trkpt>
      <trkpt lat="47.513617" lon="7.965308">
        <ele>452.413742</ele>
        <time>2021-11-11T21:19:18.230Z</time>
      </trkpt>
      <trkpt lat="47.513496" lon="7.965435">
        <ele>452.997665</ele>
        <time>2021-11-11T21:19:22.341Z</time>
      </trkpt>
      <trkpt lat="47.513552" lon="7.965694">
        <ele>453.720787</ele>
        <time>2021-11-11T21:19:27.662Z</time>
      </trkpt>
      <trkpt lat="47.513574" lon="7.965795">
        <ele>454.002972</ele>
        <time>2021-11-11T21:19:30.189Z</time>
      </trkpt>
      <trkpt lat="47.513607" lon="7.966067">
        <ele>454.737809</ele>
        <time>2021-11-11T21:19:35.973Z</time>
      </trkpt>
      <trkpt lat="47.513677" lon="7.966493">
        <ele>455.903604</ele>
        <time>2021-11-11T21:19:46.241Z</time>
      </trkpt>
      <trkpt lat="47.513719" lon="7.966609">
        <ele>456.253578</ele>
        <time>2021-11-11T21:19:49.917Z</time>
      </trkpt>
      <trkpt lat="47.513963" lon="7.966968">
        <ele>457.811651</ele>
        <time>2021-11-11T21:20:02.979Z</time>
      </trkpt>
      <trkpt lat="47.514175" lon="7.967361">
        <ele>460.153928</ele>
        <time>2021-11-11T21:20:15.146Z</time>
      </trkpt>
      <trkpt lat="47.514265" lon="7.967596">
        <ele>461.412004</ele>
        <time>2021-11-11T21:20:21.769Z</time>
      </trkpt>
      <trkpt lat="47.514516" lon="7.968208">
        <ele>464.746351</ele>
        <time>2021-11-11T21:20:40.114Z</time>
      </trkpt>
      <trkpt lat="47.514581" lon="7.968390">
        <ele>465.705109</ele>
        <time>2021-11-11T21:20:47.443Z</time>
      </trkpt>
      <trkpt lat="47.514762" lon="7.968835">
        <ele>468.124202</ele>
        <time>2021-11-11T21:21:04.122Z</time>
      </trkpt>
      <trkpt lat="47.515012" lon="7.969232">
        <ele>470.956969</ele>
        <time>2021-11-11T21:21:22.571Z</time>
      </trkpt>
      <trkpt lat="47.515227" lon="7.969425">
        <ele>473.269392</ele>
        <time>2021-11-11T21:21:35.332Z</time>
      </trkpt>
      <trkpt lat="47.515307" lon="7.969493">
        <ele>474.117788</ele>
        <time>2021-11-11T21:21:40.700Z</time>
      </trkpt>
      <trkpt lat="47.515780" lon="7.969896">
        <ele>479.136861</ele>
        <time>2021-11-11T21:22:09.944Z</time>
      </trkpt>
      <trkpt lat="47.516258" lon="7.970425">
        <ele>484.625411</ele>
        <time>2021-11-11T21:22:41.004Z</time>
      </trkpt>
      <trkpt lat="47.516475" lon="7.970786">
        <ele>486.715847</ele>
        <time>2021-11-11T21:22:58.697Z</time>
      </trkpt>
      <trkpt lat="47.516639" lon="7.971156">
        <ele>487.604309</ele>
        <time>2021-11-11T21:23:13.529Z</time>
      </trkpt>
      <trkpt lat="47.516849" lon="7.971986">
        <ele>489.383631</ele>
        <time>2021-11-11T21:23:34.887Z</time>
      </trkpt>
      <trkpt lat="47.517017" lon="7.972944">
        <ele>491.370597</ele>
        <time>2021-11-11T21:23:42.635Z</time>
      </trkpt>
      <trkpt lat="47.517070" lon="7.973149">
        <ele>491.159724</ele>
        <time>2021-11-11T21:23:44.059Z</time>
      </trkpt>
      <trkpt lat="47.517191" lon="7.973538">
        <ele>488.979858</ele>
        <time>2021-11-11T21:23:46.851Z</time>
      </trkpt>
      <trkpt lat="47.517208" lon="7.973572">
        <ele>488.764538</ele>
        <time>2021-11-11T21:23:47.094Z</time>
      </trkpt>
      <trkpt lat="47.517263" lon="7.973683">
        <ele>488.063818</ele>
        <time>2021-11-11T21:23:47.927Z</time>
      </trkpt>
      <trkpt lat="47.517422" lon="7.973976">
        <ele>486.150716</ele>
        <time>2021-11-11T21:23:50.256Z</time>
      </trkpt>
      <trkpt lat="47.517539" lon="7.974133">
        <ele>484.960729</ele>
        <time>2021-11-11T21:23:51.649Z</time>
      </trkpt>
      <trkpt lat="47.517601" lon="7.974216">
        <ele>484.330809</ele>
        <time>2021-11-11T21:23:52.377Z</time>
      </trkpt>
      <trkpt lat="47.517803" lon="7.974479">
        <ele>482.303623</ele>
        <time>2021-11-11T21:23:54.724Z</time>
      </trkpt>
      <trkpt lat="47.517897" lon="7.974601">
        <ele>481.361578</ele>
        <time>2021-11-11T21:23:55.788Z</time>
      </trkpt>
      <trkpt lat="47.518511" lon="7.975376">
        <ele>475.166819</ele>
        <time>2021-11-11T21:24:02.700Z</time>
      </trkpt>
      <trkpt lat="47.518771" lon="7.975833">
        <ele>472.000907</ele>
        <time>2021-11-11T21:24:06.213Z</time>
      </trkpt>
      <trkpt lat="47.518954" lon="7.976318">
        <ele>469.057445</ele>
        <time>2021-11-11T21:24:09.554Z</time>
      </trkpt>
      <trkpt lat="47.519021" lon="7.976610">
        <ele>467.423534</ele>
        <time>2021-11-11T21:24:11.472Z</time>
      </trkpt>
      <trkpt lat="47.519068" lon="7.976937">
        <ele>465.652241</ele>
        <time>2021-11-11T21:24:13.560Z</time>
      </trkpt>
      <trkpt lat="47.519130" lon="7.977741">
        <ele>462.744431</ele>
        <time>2021-11-11T21:24:18.571Z</time>
      </trkpt>
      <trkpt lat="47.519217" lon="7.979377">
        <ele>458.669858</ele>
        <time>2021-11-11T21:24:29.362Z</time>
      </trkpt>
      <trkpt lat="47.519262" lon="7.980038">
        <ele>457.554707</ele>
        <time>2021-11-11T21:24:34.577Z</time>
      </trkpt>
      <trkpt lat="47.518938" lon="7.980093">
        <ele>458.308376</ele>
        <time>2021-11-11T21:25:11.030Z</time>
      </trkpt>
      <trkpt lat="47.518298" lon="7.980206">
        <ele>459.797893</ele>
        <time>2021-11-11T21:26:27.841Z</time>
      </trkpt>
      <trkpt lat="47.517633" lon="7.980418">
        <ele>461.369925</ele>
        <time>2021-11-11T21:27:55.369Z</time>
      </trkpt>
      <trkpt lat="47.517255" lon="7.980642">
        <ele>462.967018</ele>
        <time>2021-11-11T21:28:50.281Z</time>
      </trkpt>
      <trkpt lat="47.516970" lon="7.981153">
        <ele>464.843754</ele>
        <time>2021-11-11T21:29:49.880Z</time>
      </trkpt>
      <trkpt lat="47.516666" lon="7.982302">
        <ele>468.338363</ele>
        <time>2021-11-11T21:31:34.627Z</time>
      </trkpt>
      <trkpt lat="47.516360" lon="7.983035">
        <ele>470.178707</ele>
        <time>2021-11-11T21:32:45.780Z</time>
      </trkpt>
      <trkpt lat="47.516251" lon="7.983296">
        <ele>470.746648</ele>
        <time>2021-11-11T21:33:10.208Z</time>
      </trkpt>
      <trkpt lat="47.516036" lon="7.983707">
        <ele>471.708801</ele>
        <time>2021-11-11T21:33:52.013Z</time>
      </trkpt>
      <trkpt lat="47.515459" lon="7.984619">
        <ele>474.025312</ele>
        <time>2021-11-11T21:35:37.607Z</time>
      </trkpt>
      <trkpt lat="47.515212" lon="7.985092">
        <ele>475.220929</ele>
        <time>2021-11-11T21:36:25.896Z</time>
      </trkpt>
      <trkpt lat="47.515029" lon="7.985591">
        <ele>476.356409</ele>
        <time>2021-11-11T21:37:11.844Z</time>
      </trkpt>
      <trkpt lat="47.514984" lon="7.985795">
        <ele>476.785561</ele>
        <time>2021-11-11T21:37:29.543Z</time>
      </trkpt>
      <trkpt lat="47.514955" lon="7.985985">
        <ele>477.175092</ele>
        <time>2021-11-11T21:37:45.153Z</time>
      </trkpt>
      <trkpt lat="47.514922" lon="7.986199">
        <ele>477.614048</ele>
        <time>2021-11-11T21:38:03.930Z</time>
      </trkpt>
      <trkpt lat="47.514895" lon="7.986454">
        <ele>478.130209</ele>
        <time>2021-11-11T21:38:24.904Z</time>
      </trkpt>
      <trkpt lat="47.514857" lon="7.986612">
        <ele>478.465603</ele>
        <time>2021-11-11T21:38:39.186Z</time>
      </trkpt>
      <trkpt lat="47.514801" lon="7.986869">
        <ele>479.005620</ele>
        <time>2021-11-11T21:39:01.940Z</time>
      </trkpt>
      <trkpt lat="47.514696" lon="7.987074">
        <ele>479.728465</ele>
        <time>2021-11-11T21:39:23.538Z</time>
      </trkpt>
      <trkpt lat="47.514488" lon="7.987298">
        <ele>481.215092</ele>
        <time>2021-11-11T21:39:55.566Z</time>
      </trkpt>
      <trkpt lat="47.514195" lon="7.987607">
        <ele>483.294327</ele>
        <time>2021-11-11T21:40:45.335Z</time>
      </trkpt>
      <trkpt lat="47.514055" lon="7.987689">
        <ele>484.164546</ele>
        <time>2021-11-11T21:41:07.333Z</time>
      </trkpt>
      <trkpt lat="47.513697" lon="7.987670">
        <ele>486.235118</ele>
        <time>2021-11-11T21:41:54.001Z</time>
      </trkpt>
      <trkpt lat="47.513512" lon="7.987549">
        <ele>487.404109</ele>
        <time>2021-11-11T21:42:17.914Z</time>
      </trkpt>
      <trkpt lat="47.513196" lon="7.987138">
        <ele>489.886249</ele>
        <time>2021-11-11T21:43:16.688Z</time>
      </trkpt>
      <trkpt lat="47.513120" lon="7.987065">
        <ele>490.603646</ele>
        <time>2021-11-11T21:43:32.414Z</time>
      </trkpt>
      <trkpt lat="47.513070" lon="7.987017">
        <ele>491.075541</ele>
        <time>2021-11-11T21:43:42.863Z</time>
      </trkpt>
      <trkpt lat="47.512205" lon="7.986705">
        <ele>498.125750</ele>
        <time>2021-11-11T21:45:52.407Z</time>
      </trkpt>
      <trkpt lat="47.512195" lon="7.986702">
        <ele>498.206549</ele>
        <time>2021-11-11T21:45:54.540Z</time>
      </trkpt>
      <trkpt lat="47.511754" lon="7.986681">
        <ele>501.700597</ele>
        <time>2021-11-11T21:46:58.256Z</time>
      </trkpt>
      <trkpt lat="47.511677" lon="7.986666">
        <ele>502.315609</ele>
        <time>2021-11-11T21:47:12.057Z</time>
      </trkpt>
      <trkpt lat="47.511625" lon="7.986656">
        <ele>502.730852</ele>
        <time>2021-11-11T21:47:19.849Z</time>
      </trkpt>
      <trkpt lat="47.511388" lon="7.986757">
        <ele>504.121072</ele>
        <time>2021-11-11T21:47:50.430Z</time>
      </trkpt>
      <trkpt lat="47.511287" lon="7.986937">
        <ele>504.424772</ele>
        <time>2021-11-11T21:48:11.711Z</time>
      </trkpt>
      <trkpt lat="47.511285" lon="7.987015">
        <ele>504.526075</ele>
        <time>2021-11-11T21:48:17.828Z</time>
      </trkpt>
      <trkpt lat="47.511279" lon="7.987254">
        <ele>504.836468</ele>
        <time>2021-11-11T21:48:38.539Z</time>
      </trkpt>
      <trkpt lat="47.511287" lon="7.987695">
        <ele>505.409013</ele>
        <time>2021-11-11T21:49:15.250Z</time>
      </trkpt>
      <trkpt lat="47.511291" lon="7.987928">
        <ele>505.711502</ele>
        <time>2021-11-11T21:49:35.612Z</time>
      </trkpt>
      <trkpt lat="47.511279" lon="7.989103">
        <ele>507.236615</ele>
        <time>2021-11-11T21:51:03.327Z</time>
      </trkpt>
      <trkpt lat="47.511281" lon="7.989398">
        <ele>506.807523</ele>
        <time>2021-11-11T21:51:23.937Z</time>
      </trkpt>
      <trkpt lat="47.511310" lon="7.989658">
        <ele>505.902846</ele>
        <time>2021-11-11T21:51:41.550Z</time>
      </trkpt>
      <trkpt lat="47.511323" lon="7.989943">
        <ele>504.922203</ele>
        <time>2021-11-11T21:52:01.030Z</time>
      </trkpt>
      <trkpt lat="47.511276" lon="7.990072">
        <ele>504.419022</ele>
        <time>2021-11-11T21:52:10.678Z</time>
      </trkpt>
      <trkpt lat="47.511333" lon="7.990498">
        <ele>502.928131</ele>
        <time>2021-11-11T21:52:39.466Z</time>
      </trkpt>
      <trkpt lat="47.511524" lon="7.990642">
        <ele>501.838725</ele>
        <time>2021-11-11T21:52:59.778Z</time>
      </trkpt>
      <trkpt lat="47.511515" lon="7.991186">
        <ele>499.970602</ele>
        <time>2021-11-11T21:53:34.051Z</time>
      </trkpt>
      <trkpt lat="47.511385" lon="7.991709">
        <ele>497.969654</ele>
        <time>2021-11-11T21:54:08.493Z</time>
      </trkpt>
      <trkpt lat="47.511053" lon="7.992512">
        <ele>493.301272</ele>
        <time>2021-11-11T21:55:06.560Z</time>
      </trkpt>
      <trkpt lat="47.510997" lon="7.992648">
        <ele>492.511486</ele>
        <time>2021-11-11T21:55:16.017Z</time>
      </trkpt>
      <trkpt lat="47.510818" lon="7.992811">
        <ele>490.968768</ele>
        <time>2021-11-11T21:55:35.211Z</time>
      </trkpt>
      <trkpt lat="47.509038" lon="7.992773">
        <ele>482.153614</ele>
        <time>2021-11-11T21:58:21.867Z</time>
      </trkpt>
      <trkpt lat="47.508977" lon="7.992786">
        <ele>481.970299</ele>
        <time>2021-11-11T21:58:27.364Z</time>
      </trkpt>
      <trkpt lat="47.508933" lon="7.992795">
        <ele>481.838178</ele>
        <time>2021-11-11T21:58:32.025Z</time>
      </trkpt>
      <trkpt lat="47.508819" lon="7.992357">
        <ele>480.895078</ele>
        <time>2021-11-11T21:59:06.973Z</time>
      </trkpt>
      <trkpt lat="47.508590" lon="7.991481">
        <ele>481.287762</ele>
        <time>2021-11-11T22:00:24.581Z</time>
      </trkpt>
      <trkpt lat="47.508561" lon="7.991069">
        <ele>483.193302</ele>
        <time>2021-11-11T22:01:00.207Z</time>
      </trkpt>
      <trkpt lat="47.508932" lon="7.990221">
        <ele>487.841003</ele>
        <time>2021-11-11T22:02:39.630Z</time>
      </trkpt>
      <trkpt lat="47.508930" lon="7.989875">
        <ele>489.432716</ele>
        <time>2021-11-11T22:03:14.968Z</time>
      </trkpt>
      <trkpt lat="47.508822" lon="7.989054">
        <ele>493.485274</ele>
        <time>2021-11-11T22:04:35.922Z</time>
      </trkpt>
      <trkpt lat="47.508812" lon="7.988947">
        <ele>494.058707</ele>
        <time>2021-11-11T22:04:47.591Z</time>
      </trkpt>
      <trkpt lat="47.508804" lon="7.988871">
        <ele>494.467032</ele>
        <time>2021-11-11T22:04:55.609Z</time>
      </trkpt>
      <trkpt lat="47.508539" lon="7.986509">
        <ele>507.054615</ele>
        <time>2021-11-11T22:08:45.212Z</time>
      </trkpt>
      <trkpt lat="47.508861" lon="7.985423">
        <ele>512.640472</ele>
        <time>2021-11-11T22:10:36.077Z</time>
      </trkpt>
      <trkpt lat="47.508982" lon="7.985006">
        <ele>514.777976</ele>
        <time>2021-11-11T22:11:18.887Z</time>
      </trkpt>
      <trkpt lat="47.509006" lon="7.984925">
        <ele>515.194553</ele>
        <time>2021-11-11T22:11:27.010Z</time>
      </trkpt>
      <trkpt lat="47.509029" lon="7.984818">
        <ele>515.723395</ele>
        <time>2021-11-11T22:11:37.696Z</time>
      </trkpt>
      <trkpt lat="47.509056" lon="7.984659">
        <ele>516.495543</ele>
        <time>2021-11-11T22:11:53.352Z</time>
      </trkpt>
      <trkpt lat="47.509054" lon="7.984474">
        <ele>517.366954</ele>
        <time>2021-11-11T22:12:10.449Z</time>
      </trkpt>
      <trkpt lat="47.509026" lon="7.984256">
        <ele>518.412071</ele>
        <time>2021-11-11T22:12:31.423Z</time>
      </trkpt>
      <trkpt lat="47.508909" lon="7.983878">
        <ele>520.004255</ele>
        <time>2021-11-11T22:13:10.626Z</time>
      </trkpt>
      <trkpt lat="47.508402" lon="7.982292">
        <ele>526.532995</ele>
        <time>2021-11-11T22:15:53.831Z</time>
      </trkpt>
      <trkpt lat="47.508315" lon="7.981894">
        <ele>528.089511</ele>
        <time>2021-11-11T22:16:30.071Z</time>
      </trkpt>
      <trkpt lat="47.508252" lon="7.981311">
        <ele>527.716726</ele>
        <time>2021-11-11T22:17:16.380Z</time>
      </trkpt>
      <trkpt lat="47.508287" lon="7.980547">
        <ele>526.386637</ele>
        <time>2021-11-11T22:18:11.558Z</time>
      </trkpt>
      <trkpt lat="47.508295" lon="7.980412">
        <ele>526.151246</ele>
        <time>2021-11-11T22:18:22.742Z</time>
      </trkpt>
      <trkpt lat="47.508298" lon="7.980362">
        <ele>526.064056</ele>
        <time>2021-11-11T22:18:26.341Z</time>
      </trkpt>
      <trkpt lat="47.508160" lon="7.980614">
        <ele>525.500568</ele>
        <time>2021-11-11T22:18:29.276Z</time>
      </trkpt>
      <trkpt lat="47.507123" lon="7.982752">
        <ele>515.205003</ele>
        <time>2021-11-11T22:18:52.053Z</time>
      </trkpt>
      <trkpt lat="47.507055" lon="7.982858">
        <ele>514.463491</ele>
        <time>2021-11-11T22:18:53.285Z</time>
      </trkpt>
      <trkpt lat="47.507011" lon="7.982902">
        <ele>514.064767</ele>
        <time>2021-11-11T22:18:53.925Z</time>
      </trkpt>
      <trkpt lat="47.506875" lon="7.982899">
        <ele>513.043402</ele>
        <time>2021-11-11T22:18:55.639Z</time>
      </trkpt>
      <trkpt lat="47.506692" lon="7.982561">
        <ele>510.846155</ele>
        <time>2021-11-11T22:18:59.285Z</time>
      </trkpt>
      <trkpt lat="47.506233" lon="7.982148">
        <ele>506.317916</ele>
        <time>2021-11-11T22:19:06.032Z</time>
      </trkpt>
      <trkpt lat="47.505601" lon="7.981812">
        <ele>500.580402</ele>
        <time>2021-11-11T22:19:14.446Z</time>
      </trkpt>
      <trkpt lat="47.505399" lon="7.981833">
        <ele>498.850253</ele>
        <time>2021-11-11T22:19:16.975Z</time>
      </trkpt>
      <trkpt lat="47.505275" lon="7.981948">
        <ele>497.600045</ele>
        <time>2021-11-11T22:19:18.816Z</time>
      </trkpt>
      <trkpt lat="47.505164" lon="7.982187">
        <ele>495.926041</ele>
        <time>2021-11-11T22:19:21.226Z</time>
      </trkpt>
      <trkpt lat="47.505153" lon="7.982527">
        <ele>493.699235</ele>
        <time>2021-11-11T22:19:24.062Z</time>
      </trkpt>
      <trkpt lat="47.505235" lon="7.983158">
        <ele>489.085108</ele>
        <time>2021-11-11T22:19:29.338Z</time>
      </trkpt>
      <trkpt lat="47.505180" lon="7.983525">
        <ele>486.385705</ele>
        <time>2021-11-11T22:19:32.401Z</time>
      </trkpt>
      <trkpt lat="47.505169" lon="7.983598">
        <ele>485.848628</ele>
        <time>2021-11-11T22:19:33.003Z</time>
      </trkpt>
      <trkpt lat="47.505014" lon="7.983996">
        <ele>482.549762</ele>
        <time>2021-11-11T22:19:36.750Z</time>
      </trkpt>
      <trkpt lat="47.504558" lon="7.985032">
        <ele>473.634827</ele>
        <time>2021-11-11T22:19:46.818Z</time>
      </trkpt>
      <trkpt lat="47.504408" lon="7.985264">
        <ele>471.292018</ele>
        <time>2021-11-11T22:19:49.424Z</time>
      </trkpt>
      <trkpt lat="47.503784" lon="7.986110">
        <ele>462.153936</ele>
        <time>2021-11-11T22:19:59.622Z</time>
      </trkpt>
      <trkpt lat="47.502975" lon="7.987226">
        <ele>450.845997</ele>
        <time>2021-11-11T22:20:13.086Z</time>
      </trkpt>
      <trkpt lat="47.502461" lon="7.987886">
        <ele>444.239989</ele>
        <time>2021-11-11T22:20:21.418Z</time>
      </trkpt>
      <trkpt lat="47.501201" lon="7.989503">
        <ele>429.157919</ele>
        <time>2021-11-11T22:20:42.019Z</time>
      </trkpt>
      <trkpt lat="47.498444" lon="7.993225">
        <ele>399.151648</ele>
        <time>2021-11-11T22:21:28.871Z</time>
      </trkpt>
      <trkpt lat="47.498171" lon="7.993563">
        <ele>396.435857</ele>
        <time>2021-11-11T22:21:33.412Z</time>
      </trkpt>
      <trkpt lat="47.497169" lon="7.994210">
        <ele>390.397239</ele>
        <time>2021-11-11T22:21:47.694Z</time>
      </trkpt>
      <trkpt lat="47.495891" lon="7.995038">
        <ele>384.200563</ele>
        <time>2021-11-11T22:22:07.397Z</time>
      </trkpt>
      <trkpt lat="47.495297" lon="7.995227">
        <ele>382.207399</ele>
        <time>2021-11-11T22:22:16.365Z</time>
      </trkpt>
      <trkpt lat="47.494770" lon="7.995288">
        <ele>380.473273</ele>
        <time>2021-11-11T22:22:24.094Z</time>
      </trkpt>
      <trkpt lat="47.494663" lon="7.995312">
        <ele>380.118246</ele>
        <time>2021-11-11T22:22:25.647Z</time>
      </trkpt>
      <trkpt lat="47.494655" lon="7.995343">
        <ele>380.044693</ele>
        <time>2021-11-11T22:22:25.892Z</time>
      </trkpt>
      <trkpt lat="47.494627" lon="7.995447">
        <ele>379.835075</ele>
        <time>2021-11-11T22:22:26.664Z</time>
      </trkpt>
      <trkpt lat="47.494368" lon="7.995845">
        <ele>378.867821</ele>
        <time>2021-11-11T22:22:30.521Z</time>
      </trkpt>
      <trkpt lat="47.494293" lon="7.995952">
        <ele>378.597944</ele>
        <time>2021-11-11T22:22:31.625Z</time>
      </trkpt>
      <trkpt lat="47.494203" lon="7.996025">
        <ele>378.332062</ele>
        <time>2021-11-11T22:22:32.638Z</time>
      </trkpt>
      <trkpt lat="47.493967" lon="7.996177">
        <ele>377.665272</ele>
        <time>2021-11-11T22:22:35.371Z</time>
      </trkpt>
      <trkpt lat="47.493868" lon="7.996295">
        <ele>377.335961</ele>
        <time>2021-11-11T22:22:36.649Z</time>
      </trkpt>
      <trkpt lat="47.493757" lon="7.996428">
        <ele>376.965967</ele>
        <time>2021-11-11T22:22:38.159Z</time>
      </trkpt>
      <trkpt lat="47.493684" lon="7.996562">
        <ele>376.664660</ele>
        <time>2021-11-11T22:22:39.405Z</time>
      </trkpt>
      <trkpt lat="47.493629" lon="7.996681">
        <ele>376.412283</ele>
        <time>2021-11-11T22:22:40.386Z</time>
      </trkpt>
      <trkpt lat="47.493439" lon="7.997189">
        <ele>375.395900</ele>
        <time>2021-11-11T22:22:44.574Z</time>
      </trkpt>
      <trkpt lat="47.493376" lon="7.997354">
        <ele>375.380422</ele>
        <time>2021-11-11T22:22:46.082Z</time>
      </trkpt>
      <trkpt lat="47.493330" lon="7.997491">
        <ele>375.443628</ele>
        <time>2021-11-11T22:22:47.235Z</time>
      </trkpt>
      <trkpt lat="47.493293" lon="7.997679">
        <ele>375.524530</ele>
        <time>2021-11-11T22:22:48.667Z</time>
      </trkpt>
      <trkpt lat="47.493293" lon="7.997765">
        <ele>375.560062</ele>
        <time>2021-11-11T22:22:49.383Z</time>
      </trkpt>
      <trkpt lat="47.493360" lon="7.998025">
        <ele>375.675030</ele>
        <time>2021-11-11T22:22:51.843Z</time>
      </trkpt>
      <trkpt lat="47.493432" lon="7.998154">
        <ele>375.744160</ele>
        <time>2021-11-11T22:22:53.189Z</time>
      </trkpt>
      <trkpt lat="47.493473" lon="7.998227">
        <ele>375.783380</ele>
        <time>2021-11-11T22:22:54.084Z</time>
      </trkpt>
      <trkpt lat="47.493506" lon="7.998323">
        <ele>375.827881</ele>
        <time>2021-11-11T22:22:55.592Z</time>
      </trkpt>
      <trkpt lat="47.493634" lon="7.998744">
        <ele>376.018618</ele>
        <time>2021-11-11T22:23:00.887Z</time>
      </trkpt>
      <trkpt lat="47.493614" lon="7.999095">
        <ele>376.164151</ele>
        <time>2021-11-11T22:23:06.612Z</time>
      </trkpt>
      <trkpt lat="47.493603" lon="7.999152">
        <ele>376.188643</ele>
        <time>2021-11-11T22:23:07.533Z</time>
      </trkpt>
      <trkpt lat="47.493556" lon="7.999193">
        <ele>376.222003</ele>
        <time>2021-11-11T22:23:09.045Z</time>
      </trkpt>
      <trkpt lat="47.493496" lon="7.999295">
        <ele>376.277878</ele>
        <time>2021-11-11T22:23:11.864Z</time>
      </trkpt>
      <trkpt lat="47.493001" lon="7.999840">
        <ele>377.924748</ele>
        <time>2021-11-11T22:23:32.523Z</time>
      </trkpt>
      <trkpt lat="47.492888" lon="7.999999">
        <ele>378.534579</ele>
        <time>2021-11-11T22:23:38.541Z</time>
      </trkpt>
      <trkpt lat="47.492721" lon="8.000414">
        <ele>379.811076</ele>
        <time>2021-11-11T22:23:50.545Z</time>
      </trkpt>
      <trkpt lat="47.492667" lon="8.000774">
        <ele>380.785619</ele>
        <time>2021-11-11T22:24:00.021Z</time>
      </trkpt>
      <trkpt lat="47.492504" lon="8.002220">
        <ele>384.315099</ele>
        <time>2021-11-11T22:24:37.238Z</time>
      </trkpt>
      <trkpt lat="47.492494" lon="8.002298">
        <ele>384.464895</ele>
        <time>2021-11-11T22:24:39.064Z</time>
      </trkpt>
      <trkpt lat="47.492479" lon="8.002422">
        <ele>384.702578</ele>
        <time>2021-11-11T22:24:41.752Z</time>
      </trkpt>
      <trkpt lat="47.492441" lon="8.002580">
        <ele>385.019013</ele>
        <time>2021-11-11T22:24:45.400Z</time>
      </trkpt>
      <trkpt lat="47.492372" lon="8.002747">
        <ele>385.388350</ele>
        <time>2021-11-11T22:24:50.060Z</time>
      </trkpt>
      <trkpt lat="47.492261" lon="8.002953">
        <ele>385.885489</ele>
        <time>2021-11-11T22:24:55.746Z</time>
      </trkpt>
      <trkpt lat="47.492136" lon="8.003117">
        <ele>386.351952</ele>
        <time>2021-11-11T22:25:00.723Z</time>
      </trkpt>
      <trkpt lat="47.491965" lon="8.003289">
        <ele>386.929299</ele>
        <time>2021-11-11T22:25:06.643Z</time>
      </trkpt>
      <trkpt lat="47.491575" lon="8.003658">
        <ele>388.221877</ele>
        <time>2021-11-11T22:25:19.398Z</time>
      </trkpt>
      <trkpt lat="47.491170" lon="8.004054">
        <ele>389.549685</ele>
        <time>2021-11-11T22:25:32.105Z</time>
      </trkpt>
      <trkpt lat="47.491111" lon="8.004095">
        <ele>389.727121</ele>
        <time>2021-11-11T22:25:33.978Z</time>
      </trkpt>
      <trkpt lat="47.490519" lon="8.004660">
        <ele>391.644719</ele>
        <time>2021-11-11T22:25:54.000Z</time>
      </trkpt>
      <trkpt lat="47.490158" lon="8.004837">
        <ele>392.679967</ele>
        <time>2021-11-11T22:26:06.896Z</time>
      </trkpt>
      <trkpt lat="47.489273" lon="8.004997">
        <ele>397.929231</ele>
        <time>2021-11-11T22:26:41.360Z</time>
      </trkpt>
      <trkpt lat="47.488922" lon="8.005369">
        <ele>401.017826</ele>
        <time>2021-11-11T22:27:01.749Z</time>
      </trkpt>
      <trkpt lat="47.488087" lon="8.006240">
        <ele>409.322744</ele>
        <time>2021-11-11T22:28:02.198Z</time>
      </trkpt>
      <trkpt lat="47.487471" lon="8.007065">
        <ele>418.106734</ele>
        <time>2021-11-11T22:28:55.613Z</time>
      </trkpt>
      <trkpt lat="47.487195" lon="8.007411">
        <ele>421.931136</ele>
        <time>2021-11-11T22:29:17.438Z</time>
      </trkpt>
      <trkpt lat="47.486816" lon="8.007885">
        <ele>427.004785</ele>
        <time>2021-11-11T22:29:50.407Z</time>
      </trkpt>
      <trkpt lat="47.486292" lon="8.008520">
        <ele>433.520996</ele>
        <time>2021-11-11T22:30:31.844Z</time>
      </trkpt>
      <trkpt lat="47.486101" lon="8.008893">
        <ele>436.563703</ele>
        <time>2021-11-11T22:30:48.895Z</time>
      </trkpt>
      <trkpt lat="47.486033" lon="8.009141">
        <ele>438.303788</ele>
        <time>2021-11-11T22:30:57.695Z</time>
      </trkpt>
      <trkpt lat="47.485978" lon="8.009309">
        <ele>439.517495</ele>
        <time>2021-11-11T22:31:05.618Z</time>
      </trkpt>
      <trkpt lat="47.485753" lon="8.010477">
        <ele>447.658497</ele>
        <time>2021-11-11T22:31:52.105Z</time>
      </trkpt>
      <trkpt lat="47.485521" lon="8.010956">
        <ele>451.683230</ele>
        <time>2021-11-11T22:32:15.875Z</time>
      </trkpt>
      <trkpt lat="47.485452" lon="8.011155">
        <ele>453.210740</ele>
        <time>2021-11-11T22:32:25.064Z</time>
      </trkpt>
      <trkpt lat="47.485366" lon="8.011406">
        <ele>455.132670</ele>
        <time>2021-11-11T22:32:37.469Z</time>
      </trkpt>
      <trkpt lat="47.485036" lon="8.012931">
        <ele>466.985645</ele>
        <time>2021-11-11T22:33:46.333Z</time>
      </trkpt>
      <trkpt lat="47.484865" lon="8.013927">
        <ele>475.211807</ele>
        <time>2021-11-11T22:34:34.417Z</time>
      </trkpt>
      <trkpt lat="47.484812" lon="8.014541">
        <ele>480.166761</ele>
        <time>2021-11-11T22:35:03.178Z</time>
      </trkpt>
      <trkpt lat="47.484859" lon="8.015050">
        <ele>484.251404</ele>
        <time>2021-11-11T22:35:27.846Z</time>
      </trkpt>
      <trkpt lat="47.485233" lon="8.015851">
        <ele>491.948210</ele>
        <time>2021-11-11T22:36:14.893Z</time>
      </trkpt>
      <trkpt lat="47.485254" lon="8.016109">
        <ele>494.002575</ele>
        <time>2021-11-11T22:36:26.886Z</time>
      </trkpt>
      <trkpt lat="47.485141" lon="8.016285">
        <ele>495.921787</ele>
        <time>2021-11-11T22:36:38.073Z</time>
      </trkpt>
      <trkpt lat="47.484714" lon="8.016284">
        <ele>500.916993</ele>
        <time>2021-11-11T22:37:05.741Z</time>
      </trkpt>
      <trkpt lat="47.484579" lon="8.016368">
        <ele>502.630209</ele>
        <time>2021-11-11T22:37:14.903Z</time>
      </trkpt>
      <trkpt lat="47.484439" lon="8.016455">
        <ele>503.955214</ele>
        <time>2021-11-11T22:37:24.296Z</time>
      </trkpt>
      <trkpt lat="47.483718" lon="8.017380">
        <ele>511.301574</ele>
        <time>2021-11-11T22:38:16.536Z</time>
      </trkpt>
      <trkpt lat="47.483308" lon="8.018045">
        <ele>515.984834</ele>
        <time>2021-11-11T22:38:43.623Z</time>
      </trkpt>
      <trkpt lat="47.482942" lon="8.018866">
        <ele>519.582459</ele>
        <time>2021-11-11T22:39:09.615Z</time>
      </trkpt>
      <trkpt lat="47.482872" lon="8.019058">
        <ele>520.303752</ele>
        <time>2021-11-11T22:39:15.453Z</time>
      </trkpt>
      <trkpt lat="47.482532" lon="8.019979">
        <ele>523.773563</ele>
        <time>2021-11-11T22:39:42.796Z</time>
      </trkpt>
      <trkpt lat="47.482320" lon="8.020551">
        <ele>525.910273</ele>
        <time>2021-11-11T22:40:00.306Z</time>
      </trkpt>
      <trkpt lat="47.482271" lon="8.020719">
        <ele>526.453249</ele>
        <time>2021-11-11T22:40:05.613Z</time>
      </trkpt>
      <trkpt lat="47.481833" lon="8.020424">
        <ele>528.566314</ele>
        <time>2021-11-11T22:40:24.691Z</time>
      </trkpt>
      <trkpt lat="47.481511" lon="8.020149">
        <ele>530.198784</ele>
        <time>2021-11-11T22:40:39.095Z</time>
      </trkpt>
      <trkpt lat="47.481060" lon="8.019553">
        <ele>532.853889</ele>
        <time>2021-11-11T22:41:02.138Z</time>
      </trkpt>
      <trkpt lat="47.480748" lon="8.020037">
        <ele>533.919015</ele>
        <time>2021-11-11T22:41:17.457Z</time>
      </trkpt>
      <trkpt lat="47.480540" lon="8.020358">
        <ele>534.234006</ele>
        <time>2021-11-11T22:41:26.381Z</time>
      </trkpt>
      <trkpt lat="47.480223" lon="8.020848">
        <ele>534.714466</ele>
        <time>2021-11-11T22:41:38.324Z</time>
      </trkpt>
      <trkpt lat="47.480049" lon="8.021216">
        <ele>535.032588</ele>
        <time>2021-11-11T22:41:44.708Z</time>
      </trkpt>
      <trkpt lat="47.479917" lon="8.021678">
        <ele>535.387876</ele>
        <time>2021-11-11T22:41:50.440Z</time>
      </trkpt>
      <trkpt lat="47.479512" lon="8.023112">
        <ele>534.416994</ele>
        <time>2021-11-11T22:42:07.381Z</time>
      </trkpt>
      <trkpt lat="47.479467" lon="8.023285">
        <ele>534.268722</ele>
        <time>2021-11-11T22:42:09.344Z</time>
      </trkpt>
      <trkpt lat="47.479420" lon="8.023435">
        <ele>534.136475</ele>
        <time>2021-11-11T22:42:11.136Z</time>
      </trkpt>
      <trkpt lat="47.479304" lon="8.023634">
        <ele>533.926276</ele>
        <time>2021-11-11T22:42:14.352Z</time>
      </trkpt>
      <trkpt lat="47.479124" lon="8.023790">
        <ele>533.679393</ele>
        <time>2021-11-11T22:42:17.884Z</time>
      </trkpt>
      <trkpt lat="47.478797" lon="8.023914">
        <ele>533.544774</ele>
        <time>2021-11-11T22:42:24.084Z</time>
      </trkpt>
      <trkpt lat="47.478257" lon="8.024124">
        <ele>534.517176</ele>
        <time>2021-11-11T22:42:36.425Z</time>
      </trkpt>
      <trkpt lat="47.477740" lon="8.024353">
        <ele>535.457063</ele>
        <time>2021-11-11T22:42:51.271Z</time>
      </trkpt>
      <trkpt lat="47.476006" lon="8.025168">
        <ele>539.692751</ele>
        <time>2021-11-11T22:43:54.037Z</time>
      </trkpt>
      <trkpt lat="47.475628" lon="8.025391">
        <ele>540.760546</ele>
        <time>2021-11-11T22:44:04.976Z</time>
      </trkpt>
      <trkpt lat="47.475471" lon="8.025534">
        <ele>541.236212</ele>
        <time>2021-11-11T22:44:09.328Z</time>
      </trkpt>
      <trkpt lat="47.475201" lon="8.025701">
        <ele>540.809796</ele>
        <time>2021-11-11T22:44:15.474Z</time>
      </trkpt>
      <trkpt lat="47.475108" lon="8.025721">
        <ele>540.672860</ele>
        <time>2021-11-11T22:44:17.439Z</time>
      </trkpt>
      <trkpt lat="47.474871" lon="8.025730">
        <ele>540.327411</ele>
        <time>2021-11-11T22:44:21.640Z</time>
      </trkpt>
      <trkpt lat="47.474721" lon="8.025721">
        <ele>540.108665</ele>
        <time>2021-11-11T22:44:24.297Z</time>
      </trkpt>
      <trkpt lat="47.474229" lon="8.025688">
        <ele>539.391029</ele>
        <time>2021-11-11T22:44:32.152Z</time>
      </trkpt>
      <trkpt lat="47.473567" lon="8.025657">
        <ele>538.013256</ele>
        <time>2021-11-11T22:44:41.826Z</time>
      </trkpt>
      <trkpt lat="47.472952" lon="8.025614">
        <ele>535.191300</ele>
        <time>2021-11-11T22:44:50.486Z</time>
      </trkpt>
      <trkpt lat="47.472608" lon="8.025600">
        <ele>533.614003</ele>
        <time>2021-11-11T22:44:55.179Z</time>
      </trkpt>
      <trkpt lat="47.472369" lon="8.025598">
        <ele>532.518546</ele>
        <time>2021-11-11T22:44:58.379Z</time>
      </trkpt>
      <trkpt lat="47.472261" lon="8.025623">
        <ele>532.017513</ele>
        <time>2021-11-11T22:44:59.865Z</time>
      </trkpt>
      <trkpt lat="47.472351" lon="8.026149">
        <ele>530.317935</ele>
        <time>2021-11-11T22:45:04.739Z</time>
      </trkpt>
      <trkpt lat="47.472410" lon="8.026520">
        <ele>528.558270</ele>
        <time>2021-11-11T22:45:08.135Z</time>
      </trkpt>
      <trkpt lat="47.472555" lon="8.027433">
        <ele>524.228194</ele>
        <time>2021-11-11T22:45:16.406Z</time>
      </trkpt>
      <trkpt lat="47.473064" lon="8.029879">
        <ele>511.421191</ele>
        <time>2021-11-11T22:45:38.286Z</time>
      </trkpt>
      <trkpt lat="47.473798" lon="8.032299">
        <ele>496.825593</ele>
        <time>2021-11-11T22:46:00.691Z</time>
      </trkpt>
      <trkpt lat="47.473885" lon="8.033180">
        <ele>491.842998</ele>
        <time>2021-11-11T22:46:08.213Z</time>
      </trkpt>
      <trkpt lat="47.473847" lon="8.033563">
        <ele>489.676686</ele>
        <time>2021-11-11T22:46:11.475Z</time>
      </trkpt>
      <trkpt lat="47.473840" lon="8.033635">
        <ele>489.269613</ele>
        <time>2021-11-11T22:46:12.071Z</time>
      </trkpt>
      <trkpt lat="47.473790" lon="8.034413">
        <ele>485.472416</ele>
        <time>2021-11-11T22:46:18.765Z</time>
      </trkpt>
      <trkpt lat="47.473831" lon="8.035129">
        <ele>482.049791</ele>
        <time>2021-11-11T22:46:24.957Z</time>
      </trkpt>
      <trkpt lat="47.473839" lon="8.035286">
        <ele>481.299856</ele>
        <time>2021-11-11T22:46:26.313Z</time>
      </trkpt>
      <trkpt lat="47.473860" lon="8.035698">
        <ele>479.331871</ele>
        <time>2021-11-11T22:46:29.899Z</time>
      </trkpt>
      <trkpt lat="47.474180" lon="8.037564">
        <ele>470.734573</ele>
        <time>2021-11-11T22:46:46.995Z</time>
      </trkpt>
      <trkpt lat="47.474209" lon="8.038339">
        <ele>467.394282</ele>
        <time>2021-11-11T22:46:53.827Z</time>
      </trkpt>
      <trkpt lat="47.474215" lon="8.038707">
        <ele>465.810146</ele>
        <time>2021-11-11T22:46:57.052Z</time>
      </trkpt>
      <trkpt lat="47.474227" lon="8.039152">
        <ele>463.591650</ele>
        <time>2021-11-11T22:47:00.950Z</time>
      </trkpt>
      <trkpt lat="47.474221" lon="8.039449">
        <ele>461.796446</ele>
        <time>2021-11-11T22:47:03.514Z</time>
      </trkpt>
      <trkpt lat="47.474163" lon="8.039992">
        <ele>458.475057</ele>
        <time>2021-11-11T22:47:08.173Z</time>
      </trkpt>
      <trkpt lat="47.474138" lon="8.040208">
        <ele>457.151040</ele>
        <time>2021-11-11T22:47:09.990Z</time>
      </trkpt>
      <trkpt lat="47.474123" lon="8.040321">
        <ele>456.455279</ele>
        <time>2021-11-11T22:47:10.927Z</time>
      </trkpt>
      <trkpt lat="47.473985" lon="8.040949">
        <ele>452.465565</ele>
        <time>2021-11-11T22:47:16.380Z</time>
      </trkpt>
      <trkpt lat="47.473978" lon="8.040984">
        <ele>452.245040</ele>
        <time>2021-11-11T22:47:16.675Z</time>
      </trkpt>
      <trkpt lat="47.473879" lon="8.041501">
        <ele>448.998503</ele>
        <time>2021-11-11T22:47:21.128Z</time>
      </trkpt>
      <trkpt lat="47.473852" lon="8.041693">
        <ele>447.805343</ele>
        <time>2021-11-11T22:47:22.746Z</time>
      </trkpt>
      <trkpt lat="47.473777" lon="8.042224">
        <ele>444.491610</ele>
        <time>2021-11-11T22:47:27.220Z</time>
      </trkpt>
      <trkpt lat="47.473758" lon="8.042402">
        <ele>443.390801</ele>
        <time>2021-11-11T22:47:28.686Z</time>
      </trkpt>
      <trkpt lat="47.473704" lon="8.042917">
        <ele>440.207235</ele>
        <time>2021-11-11T22:47:33.015Z</time>
      </trkpt>
      <trkpt lat="47.473636" lon="8.043549">
        <ele>436.297976</ele>
        <time>2021-11-11T22:47:38.332Z</time>
      </trkpt>
      <trkpt lat="47.473516" lon="8.044367">
        <ele>431.747511</ele>
        <time>2021-11-11T22:47:45.439Z</time>
      </trkpt>
      <trkpt lat="47.473438" lon="8.044899">
        <ele>430.086987</ele>
        <time>2021-11-11T22:47:50.264Z</time>
      </trkpt>
      <trkpt lat="47.473401" lon="8.045179">
        <ele>429.216719</ele>
        <time>2021-11-11T22:47:52.923Z</time>
      </trkpt>
      <trkpt lat="47.473326" lon="8.045734">
        <ele>427.490268</ele>
        <time>2021-11-11T22:47:58.394Z</time>
      </trkpt>
      <trkpt lat="47.473281" lon="8.046069">
        <ele>426.448413</ele>
        <time>2021-11-11T22:48:01.783Z</time>
      </trkpt>
      <trkpt lat="47.473279" lon="8.046135">
        <ele>426.246887</ele>
        <time>2021-11-11T22:48:02.429Z</time>
      </trkpt>
      <trkpt lat="47.473275" lon="8.046246">
        <ele>425.907816</ele>
        <time>2021-11-11T22:48:03.530Z</time>
      </trkpt>
      <trkpt lat="47.473267" lon="8.046478">
        <ele>425.199211</ele>
        <time>2021-11-11T22:48:05.890Z</time>
      </trkpt>
      <trkpt lat="47.473288" lon="8.046956">
        <ele>423.891599</ele>
        <time>2021-11-11T22:48:10.739Z</time>
      </trkpt>
      <trkpt lat="47.473293" lon="8.047019">
        <ele>423.763575</ele>
        <time>2021-11-11T22:48:11.382Z</time>
      </trkpt>
      <trkpt lat="47.473330" lon="8.047516">
        <ele>422.754434</ele>
        <time>2021-11-11T22:48:16.356Z</time>
      </trkpt>
      <trkpt lat="47.473426" lon="8.048250">
        <ele>421.245554</ele>
        <time>2021-11-11T22:48:23.831Z</time>
      </trkpt>
      <trkpt lat="47.473399" lon="8.048317">
        <ele>421.088123</ele>
        <time>2021-11-11T22:48:24.604Z</time>
      </trkpt>
      <trkpt lat="47.473553" lon="8.048608">
        <ele>420.342217</ele>
        <time>2021-11-11T22:48:28.332Z</time>
      </trkpt>
      <trkpt lat="47.473653" lon="8.048798">
        <ele>419.856210</ele>
        <time>2021-11-11T22:48:30.700Z</time>
      </trkpt>
      <trkpt lat="47.473721" lon="8.049149">
        <ele>419.119282</ele>
        <time>2021-11-11T22:48:34.316Z</time>
      </trkpt>
      <trkpt lat="47.473721" lon="8.049484">
        <ele>418.469636</ele>
        <time>2021-11-11T22:48:37.598Z</time>
      </trkpt>
      <trkpt lat="47.473739" lon="8.049805">
        <ele>417.865056</ele>
        <time>2021-11-11T22:48:40.744Z</time>
      </trkpt>
      <trkpt lat="47.473822" lon="8.050049">
        <ele>417.352347</ele>
        <time>2021-11-11T22:48:43.442Z</time>
      </trkpt>
      <trkpt lat="47.473894" lon="8.050166">
        <ele>417.055359</ele>
        <time>2021-11-11T22:48:44.975Z</time>
      </trkpt>
      <trkpt lat="47.474081" lon="8.050366">
        <ele>416.414600</ele>
        <time>2021-11-11T22:48:48.323Z</time>
      </trkpt>
      <trkpt lat="47.474143" lon="8.050319">
        <ele>416.221148</ele>
        <time>2021-11-11T22:48:49.322Z</time>
      </trkpt>
      <trkpt lat="47.474239" lon="8.050256">
        <ele>415.929517</ele>
        <time>2021-11-11T22:48:50.833Z</time>
      </trkpt>
      <trkpt lat="47.474303" lon="8.050237">
        <ele>415.748253</ele>
        <time>2021-11-11T22:48:51.775Z</time>
      </trkpt>
      <trkpt lat="47.474368" lon="8.050231">
        <ele>415.567404</ele>
        <time>2021-11-11T22:48:52.737Z</time>
      </trkpt>
      <trkpt lat="47.474638" lon="8.050222">
        <ele>414.817452</ele>
        <time>2021-11-11T22:48:56.832Z</time>
      </trkpt>
      <trkpt lat="47.474939" lon="8.050217">
        <ele>413.981554</ele>
        <time>2021-11-11T22:49:01.644Z</time>
      </trkpt>
      <trkpt lat="47.475193" lon="8.050245">
        <ele>413.598853</ele>
        <time>2021-11-11T22:49:05.847Z</time>
      </trkpt>
      <trkpt lat="47.475235" lon="8.050262">
        <ele>413.548988</ele>
        <time>2021-11-11T22:49:06.548Z</time>
      </trkpt>
      <trkpt lat="47.475306" lon="8.050302">
        <ele>413.461985</ele>
        <time>2021-11-11T22:49:07.831Z</time>
      </trkpt>
      <trkpt lat="47.475337" lon="8.050345">
        <ele>413.413322</ele>
        <time>2021-11-11T22:49:08.515Z</time>
      </trkpt>
      <trkpt lat="47.475419" lon="8.050365">
        <ele>413.318150</ele>
        <time>2021-11-11T22:49:09.852Z</time>
      </trkpt>
      <trkpt lat="47.475517" lon="8.050382">
        <ele>413.205154</ele>
        <time>2021-11-11T22:49:11.575Z</time>
      </trkpt>
      <trkpt lat="47.475713" lon="8.050385">
        <ele>412.980688</ele>
        <time>2021-11-11T22:49:14.837Z</time>
      </trkpt>
      <trkpt lat="47.475746" lon="8.050384">
        <ele>412.942889</ele>
        <time>2021-11-11T22:49:15.344Z</time>
      </trkpt>
      <trkpt lat="47.476344" lon="8.050361">
        <ele>412.257843</ele>
        <time>2021-11-11T22:49:25.972Z</time>
      </trkpt>
      <trkpt lat="47.476590" lon="8.050307">
        <ele>411.973047</ele>
        <time>2021-11-11T22:49:30.475Z</time>
      </trkpt>
      <trkpt lat="47.476858" lon="8.050274">
        <ele>411.684660</ele>
        <time>2021-11-11T22:49:59.563Z</time>
      </trkpt>
      <trkpt lat="47.477047" lon="8.050303">
        <ele>411.508912</ele>
        <time>2021-11-11T22:50:20.320Z</time>
      </trkpt>
      <trkpt lat="47.477267" lon="8.050373">
        <ele>411.300777</ele>
        <time>2021-11-11T22:50:44.643Z</time>
      </trkpt>
      <trkpt lat="47.477918" lon="8.050584">
        <ele>410.684373</ele>
        <time>2021-11-11T22:50:56.471Z</time>
      </trkpt>
      <trkpt lat="47.478348" lon="8.050767">
        <ele>410.270529</ele>
        <time>2021-11-11T22:51:04.199Z</time>
      </trkpt>
      <trkpt lat="47.478902" lon="8.050813">
        <ele>409.563772</ele>
        <time>2021-11-11T22:51:13.631Z</time>
      </trkpt>
      <trkpt lat="47.479301" lon="8.050948">
        <ele>408.973419</ele>
        <time>2021-11-11T22:51:20.389Z</time>
      </trkpt>
      <trkpt lat="47.480731" lon="8.051537">
        <ele>406.636234</ele>
        <time>2021-11-11T22:51:44.691Z</time>
      </trkpt>
      <trkpt lat="47.481120" lon="8.051779">
        <ele>405.851084</ele>
        <time>2021-11-11T22:51:51.319Z</time>
      </trkpt>
      <trkpt lat="47.481212" lon="8.051837">
        <ele>405.665018</ele>
        <time>2021-11-11T22:51:52.985Z</time>
      </trkpt>
      <trkpt lat="47.481264" lon="8.051869">
        <ele>405.560232</ele>
        <time>2021-11-11T22:51:53.919Z</time>
      </trkpt>
      <trkpt lat="47.481406" lon="8.051919">
        <ele>405.288647</ele>
        <time>2021-11-11T22:51:56.032Z</time>
      </trkpt>
      <trkpt lat="47.481555" lon="8.051930">
        <ele>405.011070</ele>
        <time>2021-11-11T22:51:58.532Z</time>
      </trkpt>
      <trkpt lat="47.481797" lon="8.051888">
        <ele>404.557715</ele>
        <time>2021-11-11T22:52:02.279Z</time>
      </trkpt>
      <trkpt lat="47.482127" lon="8.051839">
        <ele>403.891919</ele>
        <time>2021-11-11T22:52:07.554Z</time>
      </trkpt>
      <trkpt lat="47.482219" lon="8.051812">
        <ele>403.679084</ele>
        <time>2021-11-11T22:52:09.066Z</time>
      </trkpt>
      <trkpt lat="47.482335" lon="8.051760">
        <ele>403.404040</ele>
        <time>2021-11-11T22:52:11.208Z</time>
      </trkpt>
      <trkpt lat="47.482375" lon="8.051733">
        <ele>403.304273</ele>
        <time>2021-11-11T22:52:11.841Z</time>
      </trkpt>
      <trkpt lat="47.482455" lon="8.051685">
        <ele>403.108379</ele>
        <time>2021-11-11T22:52:13.117Z</time>
      </trkpt>
      <trkpt lat="47.482625" lon="8.051456">
        <ele>402.586699</ele>
        <time>2021-11-11T22:52:17.012Z</time>
      </trkpt>
      <trkpt lat="47.482669" lon="8.051382">
        <ele>402.435544</ele>
        <time>2021-11-11T22:52:17.966Z</time>
      </trkpt>
      <trkpt lat="47.482913" lon="8.050915">
        <ele>401.530293</ele>
        <time>2021-11-11T22:52:24.037Z</time>
      </trkpt>
      <trkpt lat="47.483058" lon="8.050738">
        <ele>401.103743</ele>
        <time>2021-11-11T22:52:26.878Z</time>
      </trkpt>
      <trkpt lat="47.483227" lon="8.050664">
        <ele>400.703807</ele>
        <time>2021-11-11T22:52:29.452Z</time>
      </trkpt>
      <trkpt lat="47.483364" lon="8.050596">
        <ele>400.375900</ele>
        <time>2021-11-11T22:52:31.612Z</time>
      </trkpt>
      <trkpt lat="47.483598" lon="8.050422">
        <ele>400.118572</ele>
        <time>2021-11-11T22:52:35.511Z</time>
      </trkpt>
      <trkpt lat="47.483809" lon="8.050170">
        <ele>400.196001</ele>
        <time>2021-11-11T22:52:39.811Z</time>
      </trkpt>
      <trkpt lat="47.483878" lon="8.050054">
        <ele>400.225823</ele>
        <time>2021-11-11T22:52:41.462Z</time>
      </trkpt>
      <trkpt lat="47.483967" lon="8.049904">
        <ele>400.264344</ele>
        <time>2021-11-11T22:52:43.836Z</time>
      </trkpt>
      <trkpt lat="47.484225" lon="8.049304">
        <ele>400.401583</ele>
        <time>2021-11-11T22:52:52.427Z</time>
      </trkpt>
      <trkpt lat="47.484248" lon="8.049249">
        <ele>400.414065</ele>
        <time>2021-11-11T22:52:53.309Z</time>
      </trkpt>
      <trkpt lat="47.484328" lon="8.049054">
        <ele>400.458087</ele>
        <time>2021-11-11T22:52:56.681Z</time>
      </trkpt>
      <trkpt lat="47.484307" lon="8.048841">
        <ele>400.499627</ele>
        <time>2021-11-11T22:53:00.172Z</time>
      </trkpt>
      <trkpt lat="47.484310" lon="8.048647">
        <ele>400.537074</ele>
        <time>2021-11-11T22:53:03.747Z</time>
      </trkpt>
      <trkpt lat="47.484311" lon="8.048547">
        <ele>400.556374</ele>
        <time>2021-11-11T22:53:06.286Z</time>
      </trkpt>
      <trkpt lat="47.484323" lon="8.048319">
        <ele>400.717163</ele>
        <time>2021-11-11T22:53:10.929Z</time>
      </trkpt>
      <trkpt lat="47.484354" lon="8.048144">
        <ele>401.433314</ele>
        <time>2021-11-11T22:53:14.805Z</time>
      </trkpt>
      <trkpt lat="47.484336" lon="8.047958">
        <ele>402.177116</ele>
        <time>2021-11-11T22:53:19.933Z</time>
      </trkpt>
      <trkpt lat="47.484302" lon="8.047447">
        <ele>404.209718</ele>
        <time>2021-11-11T22:53:33.034Z</time>
      </trkpt>
      <trkpt lat="47.484285" lon="8.047381">
        <ele>404.489316</ele>
        <time>2021-11-11T22:53:34.934Z</time>
      </trkpt>
      <trkpt lat="47.484254" lon="8.047262">
        <ele>404.994172</ele>
        <time>2021-11-11T22:53:37.893Z</time>
      </trkpt>
      <trkpt lat="47.484094" lon="8.047008">
        <ele>406.368716</ele>
        <time>2021-11-11T22:53:47.908Z</time>
      </trkpt>
      <trkpt lat="47.483944" lon="8.046772">
        <ele>407.651212</ele>
        <time>2021-11-11T22:53:56.526Z</time>
      </trkpt>
      <trkpt lat="47.483960" lon="8.046613">
        <ele>408.287566</ele>
        <time>2021-11-11T22:54:02.460Z</time>
      </trkpt>
      <trkpt lat="47.484017" lon="8.046089">
        <ele>410.388562</ele>
        <time>2021-11-11T22:54:19.696Z</time>
      </trkpt>
      <trkpt lat="47.484086" lon="8.045711">
        <ele>411.241700</ele>
        <time>2021-11-11T22:54:31.725Z</time>
      </trkpt>
      <trkpt lat="47.484315" lon="8.044930">
        <ele>411.706011</ele>
        <time>2021-11-11T22:54:58.035Z</time>
      </trkpt>
      <trkpt lat="47.484698" lon="8.044163">
        <ele>412.226127</ele>
        <time>2021-11-11T22:55:13.366Z</time>
      </trkpt>
      <trkpt lat="47.485120" lon="8.042908">
        <ele>408.055780</ele>
        <time>2021-11-11T22:55:25.405Z</time>
      </trkpt>
      <trkpt lat="47.485289" lon="8.042522">
        <ele>405.277987</ele>
        <time>2021-11-11T22:55:29.276Z</time>
      </trkpt>
      <trkpt lat="47.485395" lon="8.042549">
        <ele>404.316711</ele>
        <time>2021-11-11T22:55:30.158Z</time>
      </trkpt>
      <trkpt lat="47.485598" lon="8.042685">
        <ele>402.325186</ele>
        <time>2021-11-11T22:55:32.210Z</time>
      </trkpt>
      <trkpt lat="47.486008" lon="8.043050">
        <ele>398.048947</ele>
        <time>2021-11-11T22:55:36.282Z</time>
      </trkpt>
      <trkpt lat="47.486019" lon="8.043059">
        <ele>397.936612</ele>
        <time>2021-11-11T22:55:36.384Z</time>
      </trkpt>
      <trkpt lat="47.486151" lon="8.043162">
        <ele>396.602939</ele>
        <time>2021-11-11T22:55:37.772Z</time>
      </trkpt>
      <trkpt lat="47.486179" lon="8.043182">
        <ele>396.376745</ele>
        <time>2021-11-11T22:55:38.039Z</time>
      </trkpt>
      <trkpt lat="47.486222" lon="8.043212">
        <ele>396.072502</ele>
        <time>2021-11-11T22:55:38.466Z</time>
      </trkpt>
      <trkpt lat="47.486260" lon="8.043156">
        <ele>395.729285</ele>
        <time>2021-11-11T22:55:39.100Z</time>
      </trkpt>
      <trkpt lat="47.486857" lon="8.042766">
        <ele>391.552863</ele>
        <time>2021-11-11T22:55:47.035Z</time>
      </trkpt>
      <trkpt lat="47.487031" lon="8.042589">
        <ele>390.201572</ele>
        <time>2021-11-11T22:55:49.755Z</time>
      </trkpt>
      <trkpt lat="47.487333" lon="8.042295">
        <ele>387.888105</ele>
        <time>2021-11-11T22:55:54.676Z</time>
      </trkpt>
      <trkpt lat="47.487400" lon="8.042230">
        <ele>387.375388</ele>
        <time>2021-11-11T22:55:55.999Z</time>
      </trkpt>
      <trkpt lat="47.487908" lon="8.041733">
        <ele>384.597498</ele>
        <time>2021-11-11T22:56:05.771Z</time>
      </trkpt>
      <trkpt lat="47.488139" lon="8.041130">
        <ele>383.810414</ele>
        <time>2021-11-11T22:56:13.485Z</time>
      </trkpt>
      <trkpt lat="47.488448" lon="8.040708">
        <ele>383.103857</ele>
        <time>2021-11-11T22:56:20.277Z</time>
      </trkpt>
      <trkpt lat="47.488652" lon="8.040561">
        <ele>382.722581</ele>
        <time>2021-11-11T22:56:23.981Z</time>
      </trkpt>
      <trkpt lat="47.489262" lon="8.040226">
        <ele>381.670569</ele>
        <time>2021-11-11T22:56:34.783Z</time>
      </trkpt>
      <trkpt lat="47.489332" lon="8.040190">
        <ele>381.560981</ele>
        <time>2021-11-11T22:56:36.041Z</time>
      </trkpt>
      <trkpt lat="47.489708" lon="8.040031">
        <ele>380.982705</ele>
        <time>2021-11-11T22:56:42.553Z</time>
      </trkpt>
      <trkpt lat="47.492266" lon="8.039262">
        <ele>377.063714</ele>
        <time>2021-11-11T22:57:25.443Z</time>
      </trkpt>
      <trkpt lat="47.492451" lon="8.039274">
        <ele>376.782502</ele>
        <time>2021-11-11T22:57:28.428Z</time>
      </trkpt>
      <trkpt lat="47.493090" lon="8.039530">
        <ele>375.914499</ele>
        <time>2021-11-11T22:57:39.247Z</time>
      </trkpt>
      <trkpt lat="47.493416" lon="8.039728">
        <ele>375.470615</ele>
        <time>2021-11-11T22:57:45.224Z</time>
      </trkpt>
      <trkpt lat="47.493541" lon="8.039739">
        <ele>375.312880</ele>
        <time>2021-11-11T22:57:47.616Z</time>
      </trkpt>
      <trkpt lat="47.493615" lon="8.039696">
        <ele>375.212738</ele>
        <time>2021-11-11T22:57:48.904Z</time>
      </trkpt>
      <trkpt lat="47.493681" lon="8.039626">
        <ele>375.110457</ele>
        <time>2021-11-11T22:57:50.289Z</time>
      </trkpt>
      <trkpt lat="47.493681" lon="8.039626">
        <ele>375.110457</ele>
        <time>2021-11-11T22:57:50.298Z</time>
      </trkpt>
      <trkpt lat="47.493985" lon="8.039302">
        <ele>374.638562</ele>
        <time>2021-11-11T22:57:56.635Z</time>
      </trkpt>
      <trkpt lat="47.494550" lon="8.038902">
        <ele>374.208738</ele>
        <time>2021-11-11T22:58:07.491Z</time>
      </trkpt>
      <trkpt lat="47.495065" lon="8.038717">
        <ele>374.054350</ele>
        <time>2021-11-11T22:58:17.130Z</time>
      </trkpt>
      <trkpt lat="47.495161" lon="8.038728">
        <ele>374.026299</ele>
        <time>2021-11-11T22:58:19.366Z</time>
      </trkpt>
      <trkpt lat="47.495197" lon="8.038814">
        <ele>374.006386</ele>
        <time>2021-11-11T22:58:20.451Z</time>
      </trkpt>
      <trkpt lat="47.495279" lon="8.039095">
        <ele>373.946137</ele>
        <time>2021-11-11T22:58:24.989Z</time>
      </trkpt>
      <trkpt lat="47.495489" lon="8.039211">
        <ele>373.880837</ele>
        <time>2021-11-11T22:58:29.191Z</time>
      </trkpt>
      <trkpt lat="47.495746" lon="8.039041">
        <ele>373.798829</ele>
        <time>2021-11-11T22:58:34.783Z</time>
      </trkpt>
      <trkpt lat="47.497029" lon="8.038197">
        <ele>375.380458</ele>
        <time>2021-11-11T22:59:10.865Z</time>
      </trkpt>
      <trkpt lat="47.497508" lon="8.037915">
        <ele>375.753788</ele>
        <time>2021-11-11T22:59:25.049Z</time>
      </trkpt>
      <trkpt lat="47.498149" lon="8.037545">
        <ele>375.043376</ele>
        <time>2021-11-11T22:59:39.397Z</time>
      </trkpt>
      <trkpt lat="47.498683" lon="8.037262">
        <ele>374.457719</ele>
        <time>2021-11-11T22:59:48.864Z</time>
      </trkpt>
      <trkpt lat="47.499762" lon="8.036824">
        <ele>371.300152</ele>
        <time>2021-11-11T23:00:04.940Z</time>
      </trkpt>
      <trkpt lat="47.499899" lon="8.036731">
        <ele>370.697799</ele>
        <time>2021-11-11T23:00:06.991Z</time>
      </trkpt>
      <trkpt lat="47.500033" lon="8.036458">
        <ele>369.786697</ele>
        <time>2021-11-11T23:00:10.059Z</time>
      </trkpt>
      <trkpt lat="47.500142" lon="8.035639">
        <ele>367.532907</ele>
        <time>2021-11-11T23:00:17.745Z</time>
      </trkpt>
      <trkpt lat="47.500243" lon="8.035172">
        <ele>366.413961</ele>
        <time>2021-11-11T23:00:22.448Z</time>
      </trkpt>
      <trkpt lat="47.500289" lon="8.034957">
        <ele>366.012124</ele>
        <time>2021-11-11T23:00:24.671Z</time>
      </trkpt>
      <trkpt lat="47.500370" lon="8.034585">
        <ele>365.315721</ele>
        <time>2021-11-11T23:00:28.706Z</time>
      </trkpt>
      <trkpt lat="47.500371" lon="8.034497">
        <ele>365.158901</ele>
        <time>2021-11-11T23:00:29.585Z</time>
      </trkpt>
      <trkpt lat="47.500553" lon="8.034618">
        <ele>364.632698</ele>
        <time>2021-11-11T23:00:49.921Z</time>
      </trkpt>
      <trkpt lat="47.500645" lon="8.034361">
        <ele>364.114467</ele>
        <time>2021-11-11T23:00:52.032Z</time>
      </trkpt>
      <trkpt lat="47.500801" lon="8.034059">
        <ele>363.437099</ele>
        <time>2021-11-11T23:00:54.878Z</time>
      </trkpt>
      <trkpt lat="47.501066" lon="8.033753">
        <ele>362.550676</ele>
        <time>2021-11-11T23:00:58.535Z</time>
      </trkpt>
      <trkpt lat="47.501210" lon="8.033684">
        <ele>362.151487</ele>
        <time>2021-11-11T23:01:00.159Z</time>
      </trkpt>
      <trkpt lat="47.501499" lon="8.033681">
        <ele>361.613919</ele>
        <time>2021-11-11T23:01:03.353Z</time>
      </trkpt>
      <trkpt lat="47.501609" lon="8.033741">
        <ele>361.407074</ele>
        <time>2021-11-11T23:01:04.571Z</time>
      </trkpt>
      <trkpt lat="47.501599" lon="8.033785">
        <ele>361.351738</ele>
        <time>2021-11-11T23:01:04.914Z</time>
      </trkpt>
      <trkpt lat="47.501629" lon="8.033943">
        <ele>361.156107</ele>
        <time>2021-11-11T23:01:06.229Z</time>
      </trkpt>
      <trkpt lat="47.501669" lon="8.033986">
        <ele>361.068882</ele>
        <time>2021-11-11T23:01:06.835Z</time>
      </trkpt>
      <trkpt lat="47.501698" lon="8.034000">
        <ele>361.015061</ele>
        <time>2021-11-11T23:01:07.160Z</time>
      </trkpt>
      <trkpt lat="47.501807" lon="8.033950">
        <ele>360.813716</ele>
        <time>2021-11-11T23:01:08.442Z</time>
      </trkpt>
      <trkpt lat="47.501827" lon="8.033911">
        <ele>360.755352</ele>
        <time>2021-11-11T23:01:08.783Z</time>
      </trkpt>
      <trkpt lat="47.501840" lon="8.033865">
        <ele>360.695916</ele>
        <time>2021-11-11T23:01:09.199Z</time>
      </trkpt>
      <trkpt lat="47.501821" lon="8.033715">
        <ele>360.514003</ele>
        <time>2021-11-11T23:01:10.459Z</time>
      </trkpt>
      <trkpt lat="47.501785" lon="8.033665">
        <ele>360.426901</ele>
        <time>2021-11-11T23:01:11.061Z</time>
      </trkpt>
      <trkpt lat="47.501831" lon="8.033540">
        <ele>360.257231</ele>
        <time>2021-11-11T23:01:12.132Z</time>
      </trkpt>
      <trkpt lat="47.501972" lon="8.033162">
        <ele>359.742541</ele>
        <time>2021-11-11T23:01:15.448Z</time>
      </trkpt>
      <trkpt lat="47.502050" lon="8.032952">
        <ele>359.456886</ele>
        <time>2021-11-11T23:01:17.189Z</time>
      </trkpt>
      <trkpt lat="47.502181" lon="8.032622">
        <ele>359.000649</ele>
        <time>2021-11-11T23:01:20.135Z</time>
      </trkpt>
      <trkpt lat="47.502278" lon="8.032378">
        <ele>358.715592</ele>
        <time>2021-11-11T23:01:22.240Z</time>
      </trkpt>
      <trkpt lat="47.502589" lon="8.031477">
        <ele>357.782881</ele>
        <time>2021-11-11T23:01:30.143Z</time>
      </trkpt>
      <trkpt lat="47.502738" lon="8.031091">
        <ele>357.373063</ele>
        <time>2021-11-11T23:01:33.665Z</time>
      </trkpt>
      <trkpt lat="47.503055" lon="8.030264">
        <ele>356.496540</ele>
        <time>2021-11-11T23:01:41.352Z</time>
      </trkpt>
      <trkpt lat="47.503408" lon="8.029412">
        <ele>355.983525</ele>
        <time>2021-11-11T23:01:49.718Z</time>
      </trkpt>
      <trkpt lat="47.503617" lon="8.028907">
        <ele>355.695337</ele>
        <time>2021-11-11T23:01:54.773Z</time>
      </trkpt>
      <trkpt lat="47.503672" lon="8.028775">
        <ele>355.619869</ele>
        <time>2021-11-11T23:01:56.130Z</time>
      </trkpt>
      <trkpt lat="47.504063" lon="8.027828">
        <ele>355.052884</ele>
        <time>2021-11-11T23:02:06.079Z</time>
      </trkpt>
      <trkpt lat="47.504221" lon="8.027444">
        <ele>354.743055</ele>
        <time>2021-11-11T23:02:10.302Z</time>
      </trkpt>
      <trkpt lat="47.504606" lon="8.026545">
        <ele>354.009573</ele>
        <time>2021-11-11T23:02:19.332Z</time>
      </trkpt>
      <trkpt lat="47.504614" lon="8.026525">
        <ele>353.993557</ele>
        <time>2021-11-11T23:02:19.481Z</time>
      </trkpt>
      <trkpt lat="47.504641" lon="8.026538">
        <ele>353.964595</ele>
        <time>2021-11-11T23:02:19.837Z</time>
      </trkpt>
      <trkpt lat="47.504663" lon="8.026539">
        <ele>353.942143</ele>
        <time>2021-11-11T23:02:20.091Z</time>
      </trkpt>
      <trkpt lat="47.504689" lon="8.026530">
        <ele>353.914906</ele>
        <time>2021-11-11T23:02:20.400Z</time>
      </trkpt>
      <trkpt lat="47.504716" lon="8.026506">
        <ele>353.882781</ele>
        <time>2021-11-11T23:02:20.758Z</time>
      </trkpt>
      <trkpt lat="47.504737" lon="8.026462">
        <ele>353.845658</ele>
        <time>2021-11-11T23:02:21.201Z</time>
      </trkpt>
      <trkpt lat="47.504755" lon="8.026479">
        <ele>353.823878</ele>
        <time>2021-11-11T23:02:21.616Z</time>
      </trkpt>
      <trkpt lat="47.504804" lon="8.026522">
        <ele>353.765772</ele>
        <time>2021-11-11T23:02:22.683Z</time>
      </trkpt>
      <trkpt lat="47.505159" lon="8.026807">
        <ele>353.353826</ele>
        <time>2021-11-11T23:02:29.287Z</time>
      </trkpt>
      <trkpt lat="47.505540" lon="8.027087">
        <ele>352.570636</ele>
        <time>2021-11-11T23:02:36.082Z</time>
      </trkpt>
      <trkpt lat="47.505789" lon="8.027258">
        <ele>352.039757</ele>
        <time>2021-11-11T23:02:40.421Z</time>
      </trkpt>
      <trkpt lat="47.505854" lon="8.027299">
        <ele>351.903107</ele>
        <time>2021-11-11T23:02:41.648Z</time>
      </trkpt>
      <trkpt lat="47.505882" lon="8.027305">
        <ele>351.848389</ele>
        <time>2021-11-11T23:02:42.022Z</time>
      </trkpt>
      <trkpt lat="47.505880" lon="8.027324">
        <ele>351.823266</ele>
        <time>2021-11-11T23:02:42.205Z</time>
      </trkpt>
      <trkpt lat="47.505884" lon="8.027352">
        <ele>351.785875</ele>
        <time>2021-11-11T23:02:42.519Z</time>
      </trkpt>
      <trkpt lat="47.505896" lon="8.027379">
        <ele>351.743650</ele>
        <time>2021-11-11T23:02:42.851Z</time>
      </trkpt>
      <trkpt lat="47.505909" lon="8.027394">
        <ele>351.711772</ele>
        <time>2021-11-11T23:02:43.095Z</time>
      </trkpt>
      <trkpt lat="47.505930" lon="8.027402">
        <ele>351.669834</ele>
        <time>2021-11-11T23:02:43.422Z</time>
      </trkpt>
      <trkpt lat="47.505953" lon="8.027396">
        <ele>351.624665</ele>
        <time>2021-11-11T23:02:43.760Z</time>
      </trkpt>
      <trkpt lat="47.505970" lon="8.027379">
        <ele>351.584987</ele>
        <time>2021-11-11T23:02:44.109Z</time>
      </trkpt>
      <trkpt lat="47.505975" lon="8.027370">
        <ele>351.569763</ele>
        <time>2021-11-11T23:02:44.226Z</time>
      </trkpt>
      <trkpt lat="47.505985" lon="8.027324">
        <ele>351.506629</ele>
        <time>2021-11-11T23:02:44.827Z</time>
      </trkpt>
      <trkpt lat="47.505969" lon="8.027270">
        <ele>351.429591</ele>
        <time>2021-11-11T23:02:45.522Z</time>
      </trkpt>
      <trkpt lat="47.505954" lon="8.027254">
        <ele>351.393834</ele>
        <time>2021-11-11T23:02:45.904Z</time>
      </trkpt>
      <trkpt lat="47.505967" lon="8.027229">
        <ele>351.352615</ele>
        <time>2021-11-11T23:02:46.281Z</time>
      </trkpt>
      <trkpt lat="47.505984" lon="8.027167">
        <ele>351.265194</ele>
        <time>2021-11-11T23:02:47.086Z</time>
      </trkpt>
      <trkpt lat="47.506132" lon="8.026567">
        <ele>350.430680</ele>
        <time>2021-11-11T23:02:53.753Z</time>
      </trkpt>
      <trkpt lat="47.506281" lon="8.026061">
        <ele>349.711879</ele>
        <time>2021-11-11T23:02:59.538Z</time>
      </trkpt>
      <trkpt lat="47.506324" lon="8.025948">
        <ele>349.545720</ele>
        <time>2021-11-11T23:03:00.826Z</time>
      </trkpt>
      <trkpt lat="47.506408" lon="8.025723">
        <ele>349.216369</ele>
        <time>2021-11-11T23:03:03.723Z</time>
      </trkpt>
      <trkpt lat="47.506438" lon="8.025630">
        <ele>349.084335</ele>
        <time>2021-11-11T23:03:04.714Z</time>
      </trkpt>
      <trkpt lat="47.506464" lon="8.025540">
        <ele>348.958930</ele>
        <time>2021-11-11T23:03:05.731Z</time>
      </trkpt>
      <trkpt lat="47.506494" lon="8.025370">
        <ele>348.733828</ele>
        <time>2021-11-11T23:03:07.638Z</time>
      </trkpt>
      <trkpt lat="47.506550" lon="8.024942">
        <ele>348.175309</ele>
        <time>2021-11-11T23:03:12.440Z</time>
      </trkpt>
      <trkpt lat="47.506571" lon="8.024790">
        <ele>347.976545</ele>
        <time>2021-11-11T23:03:14.216Z</time>
      </trkpt>
      <trkpt lat="47.506634" lon="8.024331">
        <ele>347.376488</ele>
        <time>2021-11-11T23:03:19.379Z</time>
      </trkpt>
      <trkpt lat="47.506654" lon="8.024209">
        <ele>347.215653</ele>
        <time>2021-11-11T23:03:20.770Z</time>
      </trkpt>
      <trkpt lat="47.506661" lon="8.024170">
        <ele>347.163955</ele>
        <time>2021-11-11T23:03:21.204Z</time>
      </trkpt>
      <trkpt lat="47.506675" lon="8.024087">
        <ele>347.054356</ele>
        <time>2021-11-11T23:03:22.089Z</time>
      </trkpt>
      <trkpt lat="47.506747" lon="8.023829">
        <ele>346.696727</ele>
        <time>2021-11-11T23:03:25.086Z</time>
      </trkpt>
      <trkpt lat="47.506897" lon="8.023415">
        <ele>346.207130</ele>
        <time>2021-11-11T23:03:30.025Z</time>
      </trkpt>
      <trkpt lat="47.507083" lon="8.022900">
        <ele>345.717439</ele>
        <time>2021-11-11T23:03:36.192Z</time>
      </trkpt>
      <trkpt lat="47.507266" lon="8.022548">
        <ele>345.344982</ele>
        <time>2021-11-11T23:03:40.959Z</time>
      </trkpt>
      <trkpt lat="47.507331" lon="8.022469">
        <ele>345.240585</ele>
        <time>2021-11-11T23:03:42.233Z</time>
      </trkpt>
      <trkpt lat="47.507363" lon="8.022432">
        <ele>345.190182</ele>
        <time>2021-11-11T23:03:42.884Z</time>
      </trkpt>
      <trkpt lat="47.507442" lon="8.022550">
        <ele>345.050872</ele>
        <time>2021-11-11T23:03:44.088Z</time>
      </trkpt>
      <trkpt lat="47.507547" lon="8.022694">
        <ele>344.873196</ele>
        <time>2021-11-11T23:03:45.842Z</time>
      </trkpt>
      <trkpt lat="47.507680" lon="8.022795">
        <ele>344.687643</ele>
        <time>2021-11-11T23:03:47.534Z</time>
      </trkpt>
      <trkpt lat="47.507928" lon="8.022969">
        <ele>344.346965</ele>
        <time>2021-11-11T23:03:51.458Z</time>
      </trkpt>
      <trkpt lat="47.508015" lon="8.023020">
        <ele>344.230810</ele>
        <time>2021-11-11T23:03:53.469Z</time>
      </trkpt>
      <trkpt lat="47.508097" lon="8.023050">
        <ele>344.280065</ele>
        <time>2021-11-11T23:03:54.692Z</time>
      </trkpt>
      <trkpt lat="47.508218" lon="8.023076">
        <ele>344.510864</ele>
        <time>2021-11-11T23:03:56.791Z</time>
      </trkpt>
      <trkpt lat="47.508278" lon="8.023065">
        <ele>344.624988</ele>
        <time>2021-11-11T23:03:57.968Z</time>
      </trkpt>
      <trkpt lat="47.508305" lon="8.023050">
        <ele>344.679425</ele>
        <time>2021-11-11T23:03:58.668Z</time>
      </trkpt>
      <trkpt lat="47.508655" lon="8.022868">
        <ele>345.379672</ele>
        <time>2021-11-11T23:04:06.289Z</time>
      </trkpt>
      <trkpt lat="47.508786" lon="8.022804">
        <ele>345.640071</ele>
        <time>2021-11-11T23:04:09.426Z</time>
      </trkpt>
      <trkpt lat="47.508840" lon="8.022755">
        <ele>345.759628</ele>
        <time>2021-11-11T23:04:10.883Z</time>
      </trkpt>
      <trkpt lat="47.508863" lon="8.022719">
        <ele>345.822809</ele>
        <time>2021-11-11T23:04:11.669Z</time>
      </trkpt>
      <trkpt lat="47.508958" lon="8.022838">
        <ele>346.057715</ele>
        <time>2021-11-11T23:04:15.184Z</time>
      </trkpt>
      <trkpt lat="47.509187" lon="8.023037">
        <ele>346.558953</ele>
        <time>2021-11-11T23:04:22.357Z</time>
      </trkpt>
      <trkpt lat="47.509313" lon="8.023129">
        <ele>346.824151</ele>
        <time>2021-11-11T23:04:26.366Z</time>
      </trkpt>
      <trkpt lat="47.509881" lon="8.023632">
        <ele>347.684847</ele>
        <time>2021-11-11T23:04:42.236Z</time>
      </trkpt>
      <trkpt lat="47.510365" lon="8.024216">
        <ele>347.930904</ele>
        <time>2021-11-11T23:04:55.722Z</time>
      </trkpt>
      <trkpt lat="47.510388" lon="8.024167">
        <ele>347.946787</ele>
        <time>2021-11-11T23:04:56.245Z</time>
      </trkpt>
      <trkpt lat="47.510638" lon="8.023374">
        <ele>348.179728</ele>
        <time>2021-11-11T23:05:08.405Z</time>
      </trkpt>
      <trkpt lat="47.510740" lon="8.023224">
        <ele>348.236384</ele>
        <time>2021-11-11T23:05:10.454Z</time>
      </trkpt>
      <trkpt lat="47.510935" lon="8.022959">
        <ele>347.977881</ele>
        <time>2021-11-11T23:05:15.245Z</time>
      </trkpt>
      <trkpt lat="47.512343" lon="8.021241">
        <ele>343.504733</ele>
        <time>2021-11-11T23:05:42.328Z</time>
      </trkpt>
      <trkpt lat="47.512778" lon="8.020828">
        <ele>342.450285</ele>
        <time>2021-11-11T23:05:50.530Z</time>
      </trkpt>
      <trkpt lat="47.513167" lon="8.020663">
        <ele>341.624597</ele>
        <time>2021-11-11T23:05:56.853Z</time>
      </trkpt>
      <trkpt lat="47.513370" lon="8.020582">
        <ele>341.195595</ele>
        <time>2021-11-11T23:06:00.110Z</time>
      </trkpt>
      <trkpt lat="47.513856" lon="8.020390">
        <ele>340.169214</ele>
        <time>2021-11-11T23:06:08.232Z</time>
      </trkpt>
      <trkpt lat="47.514214" lon="8.020312">
        <ele>339.744301</ele>
        <time>2021-11-11T23:06:14.219Z</time>
      </trkpt>
      <trkpt lat="47.514447" lon="8.020326">
        <ele>339.477540</ele>
        <time>2021-11-11T23:06:18.055Z</time>
      </trkpt>
      <trkpt lat="47.514678" lon="8.020338">
        <ele>339.213122</ele>
        <time>2021-11-11T23:06:22.024Z</time>
      </trkpt>
      <trkpt lat="47.514794" lon="8.020346">
        <ele>339.080279</ele>
        <time>2021-11-11T23:06:23.977Z</time>
      </trkpt>
      <trkpt lat="47.515011" lon="8.020364">
        <ele>338.831651</ele>
        <time>2021-11-11T23:06:27.780Z</time>
      </trkpt>
      <trkpt lat="47.515050" lon="8.020367">
        <ele>338.786976</ele>
        <time>2021-11-11T23:06:28.455Z</time>
      </trkpt>
      <trkpt lat="47.515452" lon="8.020407">
        <ele>338.326068</ele>
        <time>2021-11-11T23:06:35.496Z</time>
      </trkpt>
      <trkpt lat="47.515648" lon="8.020395">
        <ele>338.101660</ele>
        <time>2021-11-11T23:06:39.014Z</time>
      </trkpt>
      <trkpt lat="47.515685" lon="8.020393">
        <ele>338.078798</ele>
        <time>2021-11-11T23:06:39.665Z</time>
      </trkpt>
      <trkpt lat="47.516146" lon="8.020218">
        <ele>337.921978</ele>
        <time>2021-11-11T23:06:48.344Z</time>
      </trkpt>
      <trkpt lat="47.516172" lon="8.020201">
        <ele>337.912612</ele>
        <time>2021-11-11T23:06:48.842Z</time>
      </trkpt>
      <trkpt lat="47.516265" lon="8.020138">
        <ele>337.878912</ele>
        <time>2021-11-11T23:06:50.691Z</time>
      </trkpt>
      <trkpt lat="47.516418" lon="8.020012">
        <ele>337.821223</ele>
        <time>2021-11-11T23:06:54.112Z</time>
      </trkpt>
      <trkpt lat="47.516592" lon="8.019879">
        <ele>337.756698</ele>
        <time>2021-11-11T23:06:57.788Z</time>
      </trkpt>
      <trkpt lat="47.516606" lon="8.019868">
        <ele>337.751475</ele>
        <time>2021-11-11T23:06:58.176Z</time>
      </trkpt>
      <trkpt lat="47.516775" lon="8.019794">
        <ele>337.693403</ele>
        <time>2021-11-11T23:07:01.691Z</time>
      </trkpt>
      <trkpt lat="47.516798" lon="8.019784">
        <ele>337.685504</ele>
        <time>2021-11-11T23:07:02.207Z</time>
      </trkpt>
      <trkpt lat="47.517087" lon="8.019737">
        <ele>337.589701</ele>
        <time>2021-11-11T23:07:07.928Z</time>
      </trkpt>
      <trkpt lat="47.517205" lon="8.019691">
        <ele>337.549493</ele>
        <time>2021-11-11T23:07:10.182Z</time>
      </trkpt>
      <trkpt lat="47.517322" lon="8.019626">
        <ele>337.508315</ele>
        <time>2021-11-11T23:07:12.802Z</time>
      </trkpt>
      <trkpt lat="47.517543" lon="8.019449">
        <ele>337.477721</ele>
        <time>2021-11-11T23:07:17.957Z</time>
      </trkpt>
      <trkpt lat="47.517699" lon="8.019320">
        <ele>337.463723</ele>
        <time>2021-11-11T23:07:20.810Z</time>
      </trkpt>
      <trkpt lat="47.517787" lon="8.019247">
        <ele>337.455821</ele>
        <time>2021-11-11T23:07:22.539Z</time>
      </trkpt>
      <trkpt lat="47.517873" lon="8.019154">
        <ele>337.447478</ele>
        <time>2021-11-11T23:07:24.027Z</time>
      </trkpt>
      <trkpt lat="47.517945" lon="8.019080">
        <ele>337.440611</ele>
        <time>2021-11-11T23:07:25.684Z</time>
      </trkpt>
      <trkpt lat="47.518228" lon="8.018741">
        <ele>337.412094</ele>
        <time>2021-11-11T23:07:31.796Z</time>
      </trkpt>
      <trkpt lat="47.518485" lon="8.018258">
        <ele>337.379560</ele>
        <time>2021-11-11T23:07:37.607Z</time>
      </trkpt>
      <trkpt lat="47.518569" lon="8.018073">
        <ele>337.367765</ele>
        <time>2021-11-11T23:07:39.513Z</time>
      </trkpt>
      <trkpt lat="47.518733" lon="8.017694">
        <ele>337.227498</ele>
        <time>2021-11-11T23:07:43.439Z</time>
      </trkpt>
      <trkpt lat="47.518855" lon="8.017453">
        <ele>337.008580</ele>
        <time>2021-11-11T23:07:45.981Z</time>
      </trkpt>
      <trkpt lat="47.519079" lon="8.017167">
        <ele>336.690253</ele>
        <time>2021-11-11T23:07:49.488Z</time>
      </trkpt>
      <trkpt lat="47.519096" lon="8.017126">
        <ele>336.655284</ele>
        <time>2021-11-11T23:07:49.858Z</time>
      </trkpt>
      <trkpt lat="47.519107" lon="8.017079">
        <ele>336.619129</ele>
        <time>2021-11-11T23:07:50.272Z</time>
      </trkpt>
      <trkpt lat="47.519117" lon="8.017042">
        <ele>336.590163</ele>
        <time>2021-11-11T23:07:50.612Z</time>
      </trkpt>
      <trkpt lat="47.519123" lon="8.016537">
        <ele>336.223052</ele>
        <time>2021-11-11T23:07:54.650Z</time>
      </trkpt>
      <trkpt lat="47.519126" lon="8.016373">
        <ele>336.103806</ele>
        <time>2021-11-11T23:07:56.139Z</time>
      </trkpt>
      <trkpt lat="47.519171" lon="8.016191">
        <ele>335.962935</ele>
        <time>2021-11-11T23:07:57.571Z</time>
      </trkpt>
      <trkpt lat="47.519228" lon="8.016109">
        <ele>335.877403</ele>
        <time>2021-11-11T23:07:58.517Z</time>
      </trkpt>
      <trkpt lat="47.519330" lon="8.015986">
        <ele>335.735828</ele>
        <time>2021-11-11T23:08:00.186Z</time>
      </trkpt>
      <trkpt lat="47.519346" lon="8.015845">
        <ele>335.631907</ele>
        <time>2021-11-11T23:08:01.226Z</time>
      </trkpt>
      <trkpt lat="47.519424" lon="8.015360">
        <ele>335.337680</ele>
        <time>2021-11-11T23:08:05.234Z</time>
      </trkpt>
      <trkpt lat="47.519518" lon="8.015145">
        <ele>335.237373</ele>
        <time>2021-11-11T23:08:07.250Z</time>
      </trkpt>
      <trkpt lat="47.519564" lon="8.015041">
        <ele>335.188685</ele>
        <time>2021-11-11T23:08:08.423Z</time>
      </trkpt>
      <trkpt lat="47.519666" lon="8.015011">
        <ele>335.128378</ele>
        <time>2021-11-11T23:08:09.672Z</time>
      </trkpt>
      <trkpt lat="47.520115" lon="8.014648">
        <ele>334.831716</ele>
        <time>2021-11-11T23:08:16.253Z</time>
      </trkpt>
      <trkpt lat="47.520539" lon="8.014558">
        <ele>334.583320</ele>
        <time>2021-11-11T23:08:22.573Z</time>
      </trkpt>
      <trkpt lat="47.520848" lon="8.014542">
        <ele>334.404018</ele>
        <time>2021-11-11T23:08:27.019Z</time>
      </trkpt>
      <trkpt lat="47.520953" lon="8.014530">
        <ele>334.368626</ele>
        <time>2021-11-11T23:08:28.354Z</time>
      </trkpt>
      <trkpt lat="47.521150" lon="8.014447">
        <ele>334.347298</ele>
        <time>2021-11-11T23:08:31.564Z</time>
      </trkpt>
      <trkpt lat="47.521292" lon="8.014319">
        <ele>334.329988</ele>
        <time>2021-11-11T23:08:33.765Z</time>
      </trkpt>
      <trkpt lat="47.521454" lon="8.014134">
        <ele>334.308685</ele>
        <time>2021-11-11T23:08:36.961Z</time>
      </trkpt>
      <trkpt lat="47.521508" lon="8.014076">
        <ele>334.301738</ele>
        <time>2021-11-11T23:08:37.902Z</time>
      </trkpt>
      <trkpt lat="47.521532" lon="8.014046">
        <ele>334.298468</ele>
        <time>2021-11-11T23:08:38.354Z</time>
      </trkpt>
      <trkpt lat="47.521611" lon="8.013949">
        <ele>334.287782</ele>
        <time>2021-11-11T23:08:39.616Z</time>
      </trkpt>
      <trkpt lat="47.521782" lon="8.013652">
        <ele>334.260336</ele>
        <time>2021-11-11T23:08:43.851Z</time>
      </trkpt>
      <trkpt lat="47.521857" lon="8.013314">
        <ele>334.235318</ele>
        <time>2021-11-11T23:08:47.503Z</time>
      </trkpt>
      <trkpt lat="47.521867" lon="8.013168">
        <ele>334.224999</ele>
        <time>2021-11-11T23:08:48.929Z</time>
      </trkpt>
      <trkpt lat="47.521884" lon="8.013019">
        <ele>334.214372</ele>
        <time>2021-11-11T23:08:50.670Z</time>
      </trkpt>
      <trkpt lat="47.521999" lon="8.011997">
        <ele>334.365411</ele>
        <time>2021-11-11T23:09:04.305Z</time>
      </trkpt>
      <trkpt lat="47.522135" lon="8.011541">
        <ele>334.503081</ele>
        <time>2021-11-11T23:09:11.350Z</time>
      </trkpt>
      <trkpt lat="47.522752" lon="8.010942">
        <ele>334.804802</ele>
        <time>2021-11-11T23:09:28.406Z</time>
      </trkpt>
      <trkpt lat="47.523475" lon="8.009886">
        <ele>335.311126</ele>
        <time>2021-11-11T23:09:52.471Z</time>
      </trkpt>
      <trkpt lat="47.523750" lon="8.009595">
        <ele>335.491633</ele>
        <time>2021-11-11T23:10:00.112Z</time>
      </trkpt>
      <trkpt lat="47.525125" lon="8.008474">
        <ele>335.525957</ele>
        <time>2021-11-11T23:10:33.193Z</time>
      </trkpt>
      <trkpt lat="47.525704" lon="8.008036">
        <ele>335.248404</ele>
        <time>2021-11-11T23:10:44.902Z</time>
      </trkpt>
      <trkpt lat="47.526398" lon="8.007517">
        <ele>334.320476</ele>
        <time>2021-11-11T23:10:57.879Z</time>
      </trkpt>
      <trkpt lat="47.527466" lon="8.006442">
        <ele>332.116094</ele>
        <time>2021-11-11T23:11:18.434Z</time>
      </trkpt>
      <trkpt lat="47.528852" lon="8.005150">
        <ele>329.161419</ele>
        <time>2021-11-11T23:11:44.526Z</time>
      </trkpt>
      <trkpt lat="47.529337" lon="8.004498">
        <ele>327.802307</ele>
        <time>2021-11-11T23:11:55.279Z</time>
      </trkpt>
      <trkpt lat="47.529391" lon="8.004422">
        <ele>327.638782</ele>
        <time>2021-11-11T23:11:56.467Z</time>
      </trkpt>
      <trkpt lat="47.530077" lon="8.003471">
        <ele>325.576149</ele>
        <time>2021-11-11T23:12:10.767Z</time>
      </trkpt>
      <trkpt lat="47.531127" lon="8.002157">
        <ele>322.610245</ele>
        <time>2021-11-11T23:12:31.828Z</time>
      </trkpt>
      <trkpt lat="47.531407" lon="8.001793">
        <ele>321.810870</ele>
        <time>2021-11-11T23:12:37.565Z</time>
      </trkpt>
      <trkpt lat="47.531789" lon="8.001140">
        <ele>320.891946</ele>
        <time>2021-11-11T23:12:46.810Z</time>
      </trkpt>
      <trkpt lat="47.532176" lon="8.000088">
        <ele>320.503836</ele>
        <time>2021-11-11T23:13:01.549Z</time>
      </trkpt>
      <trkpt lat="47.532283" lon="7.999633">
        <ele>320.347749</ele>
        <time>2021-11-11T23:13:08.479Z</time>
      </trkpt>
      <trkpt lat="47.532321" lon="7.999312">
        <ele>320.242171</ele>
        <time>2021-11-11T23:13:13.237Z</time>
      </trkpt>
      <trkpt lat="47.532314" lon="7.998991">
        <ele>320.138126</ele>
        <time>2021-11-11T23:13:17.682Z</time>
      </trkpt>
      <trkpt lat="47.532616" lon="7.998942">
        <ele>320.188023</ele>
        <time>2021-11-11T23:13:24.261Z</time>
      </trkpt>
      <trkpt lat="47.532745" lon="7.998891">
        <ele>320.218623</ele>
        <time>2021-11-11T23:13:27.296Z</time>
      </trkpt>
      <trkpt lat="47.532880" lon="7.998728">
        <ele>320.258540</ele>
        <time>2021-11-11T23:13:31.037Z</time>
      </trkpt>
      <trkpt lat="47.534115" lon="7.996823">
        <ele>320.222285</ele>
        <time>2021-11-11T23:14:08.571Z</time>
      </trkpt>
      <trkpt lat="47.535091" lon="7.993681">
        <ele>318.520980</ele>
        <time>2021-11-11T23:14:49.364Z</time>
      </trkpt>
      <trkpt lat="47.535530" lon="7.992828">
        <ele>317.894902</ele>
        <time>2021-11-11T23:15:01.522Z</time>
      </trkpt>
      <trkpt lat="47.535601" lon="7.992617">
        <ele>317.972703</ele>
        <time>2021-11-11T23:15:05.139Z</time>
      </trkpt>
      <trkpt lat="47.535603" lon="7.992576">
        <ele>317.986269</ele>
        <time>2021-11-11T23:15:06.159Z</time>
      </trkpt>
      <trkpt lat="47.535497" lon="7.992318">
        <ele>318.085938</ele>
        <time>2021-11-11T23:15:09.843Z</time>
      </trkpt>
      <trkpt lat="47.535110" lon="7.991631">
        <ele>318.381209</ele>
        <time>2021-11-11T23:15:23.655Z</time>
      </trkpt>
      <trkpt lat="47.534860" lon="7.991148">
        <ele>318.582057</ele>
        <time>2021-11-11T23:15:33.122Z</time>
      </trkpt>
      <trkpt lat="47.534644" lon="7.990797">
        <ele>318.738790</ele>
        <time>2021-11-11T23:15:40.887Z</time>
      </trkpt>
      <trkpt lat="47.534606" lon="7.990590">
        <ele>318.955421</ele>
        <time>2021-11-11T23:15:44.234Z</time>
      </trkpt>
      <trkpt lat="47.534609" lon="7.990394">
        <ele>319.208153</ele>
        <time>2021-11-11T23:15:47.843Z</time>
      </trkpt>
      <trkpt lat="47.534723" lon="7.989575">
        <ele>320.286145</ele>
        <time>2021-11-11T23:16:04.512Z</time>
      </trkpt>
      <trkpt lat="47.534771" lon="7.988562">
        <ele>321.595230</ele>
        <time>2021-11-11T23:16:25.196Z</time>
      </trkpt>
      <trkpt lat="47.534795" lon="7.988078">
        <ele>322.204895</ele>
        <time>2021-11-11T23:16:33.962Z</time>
      </trkpt>
      <trkpt lat="47.534363" lon="7.987895">
        <ele>322.558323</ele>
        <time>2021-11-11T23:16:42.844Z</time>
      </trkpt>
      <trkpt lat="47.534466" lon="7.987626">
        <ele>322.722553</ele>
        <time>2021-11-11T23:16:46.738Z</time>
      </trkpt>
      <trkpt lat="47.534590" lon="7.987330">
        <ele>322.907548</ele>
        <time>2021-11-11T23:16:51.062Z</time>
      </trkpt>
      <trkpt lat="47.534974" lon="7.986602">
        <ele>323.398159</ele>
        <time>2021-11-11T23:17:01.650Z</time>
      </trkpt>
      <trkpt lat="47.535270" lon="7.985985">
        <ele>323.684532</ele>
        <time>2021-11-11T23:17:09.318Z</time>
      </trkpt>
      <trkpt lat="47.535614" lon="7.985212">
        <ele>323.879608</ele>
        <time>2021-11-11T23:17:17.799Z</time>
      </trkpt>
      <trkpt lat="47.536026" lon="7.984206">
        <ele>324.127528</ele>
        <time>2021-11-11T23:17:30.540Z</time>
      </trkpt>
      <trkpt lat="47.536199" lon="7.983737">
        <ele>324.735791</ele>
        <time>2021-11-11T23:17:37.641Z</time>
      </trkpt>
      <trkpt lat="47.536410" lon="7.983244">
        <ele>325.726154</ele>
        <time>2021-11-11T23:17:46.798Z</time>
      </trkpt>
      <trkpt lat="47.536530" lon="7.982859">
        <ele>326.445615</ele>
        <time>2021-11-11T23:17:54.136Z</time>
      </trkpt>
      <trkpt lat="47.536764" lon="7.982225">
        <ele>327.671533</ele>
        <time>2021-11-11T23:18:07.806Z</time>
      </trkpt>
      <trkpt lat="47.536775" lon="7.982096">
        <ele>327.892137</ele>
        <time>2021-11-11T23:18:10.219Z</time>
      </trkpt>
      <trkpt lat="47.536842" lon="7.981878">
        <ele>328.298525</ele>
        <time>2021-11-11T23:18:14.960Z</time>
      </trkpt>
      <trkpt lat="47.536896" lon="7.981697">
        <ele>328.634263</ele>
        <time>2021-11-11T23:18:18.797Z</time>
      </trkpt>
      <trkpt lat="47.536959" lon="7.981602">
        <ele>328.826292</ele>
        <time>2021-11-11T23:18:21.171Z</time>
      </trkpt>
      <trkpt lat="47.537107" lon="7.981082">
        <ele>329.593003</ele>
        <time>2021-11-11T23:18:31.893Z</time>
      </trkpt>
      <trkpt lat="47.537461" lon="7.980118">
        <ele>331.083945</ele>
        <time>2021-11-11T23:18:50.446Z</time>
      </trkpt>
      <trkpt lat="47.537583" lon="7.979760">
        <ele>331.628789</ele>
        <time>2021-11-11T23:18:56.450Z</time>
      </trkpt>
      <trkpt lat="47.537955" lon="7.978125">
        <ele>331.498062</ele>
        <time>2021-11-11T23:19:12.793Z</time>
      </trkpt>
      <trkpt lat="47.538107" lon="7.977240">
        <ele>330.892602</ele>
        <time>2021-11-11T23:19:19.699Z</time>
      </trkpt>
      <trkpt lat="47.538242" lon="7.976347">
        <ele>330.017633</ele>
        <time>2021-11-11T23:19:26.575Z</time>
      </trkpt>
      <trkpt lat="47.538706" lon="7.974459">
        <ele>327.297292</ele>
        <time>2021-11-11T23:19:41.505Z</time>
      </trkpt>
      <trkpt lat="47.539262" lon="7.971768">
        <ele>322.951884</ele>
        <time>2021-11-11T23:20:01.849Z</time>
      </trkpt>
      <trkpt lat="47.539783" lon="7.969587">
        <ele>319.379490</ele>
        <time>2021-11-11T23:20:18.329Z</time>
      </trkpt>
      <trkpt lat="47.540214" lon="7.967628">
        <ele>317.198754</ele>
        <time>2021-11-11T23:20:34.129Z</time>
      </trkpt>
      <trkpt lat="47.540896" lon="7.964711">
        <ele>315.086016</ele>
        <time>2021-11-11T23:21:00.234Z</time>
      </trkpt>
      <trkpt lat="47.541095" lon="7.964204">
        <ele>314.756883</ele>
        <time>2021-11-11T23:21:05.271Z</time>
      </trkpt>
      <trkpt lat="47.541169" lon="7.964123">
        <ele>314.669326</ele>
        <time>2021-11-11T23:21:06.229Z</time>
      </trkpt>
      <trkpt lat="47.541129" lon="7.964008">
        <ele>314.577289</ele>
        <time>2021-11-11T23:21:07.672Z</time>
      </trkpt>
      <trkpt lat="47.541019" lon="7.963815">
        <ele>314.397588</ele>
        <time>2021-11-11T23:21:10.022Z</time>
      </trkpt>
      <trkpt lat="47.541123" lon="7.963520">
        <ele>314.160817</ele>
        <time>2021-11-11T23:21:12.755Z</time>
      </trkpt>
      <trkpt lat="47.541217" lon="7.963187">
        <ele>313.904031</ele>
        <time>2021-11-11T23:21:15.657Z</time>
      </trkpt>
      <trkpt lat="47.541258" lon="7.962975">
        <ele>313.747139</ele>
        <time>2021-11-11T23:21:18.052Z</time>
      </trkpt>
      <trkpt lat="47.541293" lon="7.962730">
        <ele>313.568977</ele>
        <time>2021-11-11T23:21:20.036Z</time>
      </trkpt>
      <trkpt lat="47.541308" lon="7.962513">
        <ele>313.413788</ele>
        <time>2021-11-11T23:21:22.061Z</time>
      </trkpt>
      <trkpt lat="47.541314" lon="7.962377">
        <ele>313.316827</ele>
        <time>2021-11-11T23:21:23.414Z</time>
      </trkpt>
      <trkpt lat="47.541316" lon="7.962197">
        <ele>313.188751</ele>
        <time>2021-11-11T23:21:24.758Z</time>
      </trkpt>
      <trkpt lat="47.541242" lon="7.961294">
        <ele>312.022184</ele>
        <time>2021-11-11T23:21:31.782Z</time>
      </trkpt>
      <trkpt lat="47.541153" lon="7.960814">
        <ele>311.021599</ele>
        <time>2021-11-11T23:21:35.312Z</time>
      </trkpt>
      <trkpt lat="47.541060" lon="7.960321">
        <ele>309.992650</ele>
        <time>2021-11-11T23:21:38.902Z</time>
      </trkpt>
      <trkpt lat="47.541027" lon="7.959944">
        <ele>309.228493</ele>
        <time>2021-11-11T23:21:41.404Z</time>
      </trkpt>
      <trkpt lat="47.541019" lon="7.959792">
        <ele>308.922029</ele>
        <time>2021-11-11T23:21:42.449Z</time>
      </trkpt>
      <trkpt lat="47.541012" lon="7.959578">
        <ele>308.491359</ele>
        <time>2021-11-11T23:21:43.924Z</time>
      </trkpt>
      <trkpt lat="47.541016" lon="7.959388">
        <ele>308.109252</ele>
        <time>2021-11-11T23:21:45.126Z</time>
      </trkpt>
      <trkpt lat="47.541081" lon="7.958828">
        <ele>306.923307</ele>
        <time>2021-11-11T23:21:48.895Z</time>
      </trkpt>
      <trkpt lat="47.541226" lon="7.958150">
        <ele>305.369391</ele>
        <time>2021-11-11T23:21:53.656Z</time>
      </trkpt>
      <trkpt lat="47.541305" lon="7.957787">
        <ele>304.536081</ele>
        <time>2021-11-11T23:21:56.140Z</time>
      </trkpt>
      <trkpt lat="47.541355" lon="7.957559">
        <ele>304.012302</ele>
        <time>2021-11-11T23:21:57.841Z</time>
      </trkpt>
      <trkpt lat="47.541450" lon="7.956897">
        <ele>302.533592</ele>
        <time>2021-11-11T23:22:02.476Z</time>
      </trkpt>
      <trkpt lat="47.541464" lon="7.956698">
        <ele>302.096447</ele>
        <time>2021-11-11T23:22:03.881Z</time>
      </trkpt>
      <trkpt lat="47.541533" lon="7.955526">
        <ele>301.125111</ele>
        <time>2021-11-11T23:22:12.715Z</time>
      </trkpt>
      <trkpt lat="47.541554" lon="7.955311">
        <ele>301.007992</ele>
        <time>2021-11-11T23:22:14.753Z</time>
      </trkpt>
      <trkpt lat="47.541735" lon="7.953892">
        <ele>300.229443</ele>
        <time>2021-11-11T23:22:28.962Z</time>
      </trkpt>
      <trkpt lat="47.541773" lon="7.953695">
        <ele>300.243687</ele>
        <time>2021-11-11T23:22:31.209Z</time>
      </trkpt>
      <trkpt lat="47.541791" lon="7.953601">
        <ele>300.261271</ele>
        <time>2021-11-11T23:22:32.244Z</time>
      </trkpt>
      <trkpt lat="47.541991" lon="7.952667">
        <ele>300.437602</ele>
        <time>2021-11-11T23:22:43.100Z</time>
      </trkpt>
      <trkpt lat="47.542169" lon="7.951815">
        <ele>300.598098</ele>
        <time>2021-11-11T23:22:52.838Z</time>
      </trkpt>
      <trkpt lat="47.542192" lon="7.951713">
        <ele>300.617451</ele>
        <time>2021-11-11T23:22:54.101Z</time>
      </trkpt>
      <trkpt lat="47.542357" lon="7.951037">
        <ele>300.750309</ele>
        <time>2021-11-11T23:23:01.565Z</time>
      </trkpt>
      <trkpt lat="47.542444" lon="7.950687">
        <ele>300.821712</ele>
        <time>2021-11-11T23:23:05.396Z</time>
      </trkpt>
      <trkpt lat="47.542546" lon="7.950274">
        <ele>300.905903</ele>
        <time>2021-11-11T23:23:09.742Z</time>
      </trkpt>
      <trkpt lat="47.542554" lon="7.950231">
        <ele>300.914442</ele>
        <time>2021-11-11T23:23:10.229Z</time>
      </trkpt>
      <trkpt lat="47.542560" lon="7.950202">
        <ele>300.920248</ele>
        <time>2021-11-11T23:23:10.563Z</time>
      </trkpt>
      <trkpt lat="47.542609" lon="7.949914">
        <ele>300.977108</ele>
        <time>2021-11-11T23:23:13.562Z</time>
      </trkpt>
      <trkpt lat="47.542719" lon="7.949175">
        <ele>301.121981</ele>
        <time>2021-11-11T23:23:21.465Z</time>
      </trkpt>
      <trkpt lat="47.542826" lon="7.948298">
        <ele>301.658243</ele>
        <time>2021-11-11T23:23:32.408Z</time>
      </trkpt>
      <trkpt lat="47.542838" lon="7.948225">
        <ele>301.730715</ele>
        <time>2021-11-11T23:23:33.235Z</time>
      </trkpt>
      <trkpt lat="47.542875" lon="7.948001">
        <ele>301.953155</ele>
        <time>2021-11-11T23:23:36.119Z</time>
      </trkpt>
      <trkpt lat="47.542928" lon="7.947798">
        <ele>302.163100</ele>
        <time>2021-11-11T23:23:39.042Z</time>
      </trkpt>
      <trkpt lat="47.542957" lon="7.947651">
        <ele>302.310824</ele>
        <time>2021-11-11T23:23:40.750Z</time>
      </trkpt>
      <trkpt lat="47.543050" lon="7.947411">
        <ele>302.577753</ele>
        <time>2021-11-11T23:23:45.114Z</time>
      </trkpt>
      <trkpt lat="47.543087" lon="7.947317">
        <ele>302.682712</ele>
        <time>2021-11-11T23:23:46.393Z</time>
      </trkpt>
      <trkpt lat="47.543092" lon="7.947257">
        <ele>302.741026</ele>
        <time>2021-11-11T23:23:47.182Z</time>
      </trkpt>
      <trkpt lat="47.543097" lon="7.947186">
        <ele>302.809882</ele>
        <time>2021-11-11T23:23:48.032Z</time>
      </trkpt>
      <trkpt lat="47.543086" lon="7.947052">
        <ele>302.940088</ele>
        <time>2021-11-11T23:23:49.862Z</time>
      </trkpt>
      <trkpt lat="47.543056" lon="7.946935">
        <ele>303.060810</ele>
        <time>2021-11-11T23:23:52.229Z</time>
      </trkpt>
      <trkpt lat="47.543045" lon="7.946881">
        <ele>303.115218</ele>
        <time>2021-11-11T23:23:53.341Z</time>
      </trkpt>
      <trkpt lat="47.542982" lon="7.946547">
        <ele>303.449727</ele>
        <time>2021-11-11T23:23:57.940Z</time>
      </trkpt>
      <trkpt lat="47.542974" lon="7.946495">
        <ele>303.501171</ele>
        <time>2021-11-11T23:23:59.153Z</time>
      </trkpt>
      <trkpt lat="47.542960" lon="7.946400">
        <ele>303.594964</ele>
        <time>2021-11-11T23:24:00.990Z</time>
      </trkpt>
      <trkpt lat="47.542916" lon="7.945730">
        <ele>304.314676</ele>
        <time>2021-11-11T23:24:11.566Z</time>
      </trkpt>
      <trkpt lat="47.542913" lon="7.945267">
        <ele>304.827891</ele>
        <time>2021-11-11T23:24:19.052Z</time>
      </trkpt>
      <trkpt lat="47.543007" lon="7.943867">
        <ele>306.387313</ele>
        <time>2021-11-11T23:24:39.792Z</time>
      </trkpt>
      <trkpt lat="47.543161" lon="7.942213">
        <ele>306.447899</ele>
        <time>2021-11-11T23:24:58.198Z</time>
      </trkpt>
      <trkpt lat="47.543435" lon="7.940670">
        <ele>305.853787</ele>
        <time>2021-11-11T23:25:11.146Z</time>
      </trkpt>
      <trkpt lat="47.543826" lon="7.939433">
        <ele>304.330207</ele>
        <time>2021-11-11T23:25:21.547Z</time>
      </trkpt>
      <trkpt lat="47.544472" lon="7.937932">
        <ele>302.284331</ele>
        <time>2021-11-11T23:25:34.871Z</time>
      </trkpt>
      <trkpt lat="47.544705" lon="7.937395">
        <ele>301.522763</ele>
        <time>2021-11-11T23:25:39.711Z</time>
      </trkpt>
      <trkpt lat="47.544903" lon="7.936917">
        <ele>300.853708</ele>
        <time>2021-11-11T23:25:43.971Z</time>
      </trkpt>
      <trkpt lat="47.545074" lon="7.936484">
        <ele>300.255236</ele>
        <time>2021-11-11T23:25:47.802Z</time>
      </trkpt>
      <trkpt lat="47.545457" lon="7.935110">
        <ele>299.096260</ele>
        <time>2021-11-11T23:25:59.171Z</time>
      </trkpt>
      <trkpt lat="47.545674" lon="7.933625">
        <ele>298.221753</ele>
        <time>2021-11-11T23:26:12.251Z</time>
      </trkpt>
      <trkpt lat="47.545702" lon="7.933290">
        <ele>298.458801</ele>
        <time>2021-11-11T23:26:15.831Z</time>
      </trkpt>
      <trkpt lat="47.545724" lon="7.932758">
        <ele>298.833095</ele>
        <time>2021-11-11T23:26:22.097Z</time>
      </trkpt>
      <trkpt lat="47.545721" lon="7.931992">
        <ele>299.371022</ele>
        <time>2021-11-11T23:26:32.137Z</time>
      </trkpt>
      <trkpt lat="47.545696" lon="7.931497">
        <ele>299.719604</ele>
        <time>2021-11-11T23:26:39.343Z</time>
      </trkpt>
      <trkpt lat="47.545661" lon="7.930955">
        <ele>300.165086</ele>
        <time>2021-11-11T23:26:48.037Z</time>
      </trkpt>
      <trkpt lat="47.545563" lon="7.929641">
        <ele>301.592233</ele>
        <time>2021-11-11T23:27:10.377Z</time>
      </trkpt>
      <trkpt lat="47.545475" lon="7.928419">
        <ele>302.790464</ele>
        <time>2021-11-11T23:27:26.680Z</time>
      </trkpt>
      <trkpt lat="47.545421" lon="7.927686">
        <ele>301.819667</ele>
        <time>2021-11-11T23:27:32.783Z</time>
      </trkpt>
      <trkpt lat="47.545406" lon="7.927306">
        <ele>301.318505</ele>
        <time>2021-11-11T23:27:35.687Z</time>
      </trkpt>
      <trkpt lat="47.545407" lon="7.927001">
        <ele>300.916937</ele>
        <time>2021-11-11T23:27:37.974Z</time>
      </trkpt>
      <trkpt lat="47.545409" lon="7.926773">
        <ele>300.616727</ele>
        <time>2021-11-11T23:27:39.603Z</time>
      </trkpt>
      <trkpt lat="47.545417" lon="7.925848">
        <ele>299.398774</ele>
        <time>2021-11-11T23:27:45.938Z</time>
      </trkpt>
      <trkpt lat="47.545446" lon="7.925350">
        <ele>298.181956</ele>
        <time>2021-11-11T23:27:49.230Z</time>
      </trkpt>
      <trkpt lat="47.545466" lon="7.924880">
        <ele>296.995991</ele>
        <time>2021-11-11T23:27:52.283Z</time>
      </trkpt>
      <trkpt lat="47.545481" lon="7.924396">
        <ele>295.775835</ele>
        <time>2021-11-11T23:27:55.367Z</time>
      </trkpt>
      <trkpt lat="47.545521" lon="7.923709">
        <ele>294.039318</ele>
        <time>2021-11-11T23:27:59.892Z</time>
      </trkpt>
      <trkpt lat="47.545526" lon="7.923605">
        <ele>293.776749</ele>
        <time>2021-11-11T23:28:00.614Z</time>
      </trkpt>
      <trkpt lat="47.545536" lon="7.923407">
        <ele>293.276726</ele>
        <time>2021-11-11T23:28:02.042Z</time>
      </trkpt>
      <trkpt lat="47.545553" lon="7.923142">
        <ele>292.629059</ele>
        <time>2021-11-11T23:28:03.870Z</time>
      </trkpt>
      <trkpt lat="47.545587" lon="7.922895">
        <ele>292.394587</ele>
        <time>2021-11-11T23:28:05.809Z</time>
      </trkpt>
      <trkpt lat="47.545641" lon="7.922610">
        <ele>292.119252</ele>
        <time>2021-11-11T23:28:07.948Z</time>
      </trkpt>
      <trkpt lat="47.545690" lon="7.922369">
        <ele>291.885141</ele>
        <time>2021-11-11T23:28:09.968Z</time>
      </trkpt>
      <trkpt lat="47.545699" lon="7.922325">
        <ele>291.842377</ele>
        <time>2021-11-11T23:28:10.262Z</time>
      </trkpt>
      <trkpt lat="47.545714" lon="7.922249">
        <ele>291.768727</ele>
        <time>2021-11-11T23:28:10.852Z</time>
      </trkpt>
      <trkpt lat="47.545778" lon="7.921947">
        <ele>291.474307</ele>
        <time>2021-11-11T23:28:13.539Z</time>
      </trkpt>
      <trkpt lat="47.545810" lon="7.921755">
        <ele>291.290358</ele>
        <time>2021-11-11T23:28:15.028Z</time>
      </trkpt>
      <trkpt lat="47.545881" lon="7.921096">
        <ele>290.669641</ele>
        <time>2021-11-11T23:28:20.490Z</time>
      </trkpt>
      <trkpt lat="47.545913" lon="7.920765">
        <ele>290.358625</ele>
        <time>2021-11-11T23:28:23.383Z</time>
      </trkpt>
      <trkpt lat="47.545973" lon="7.920313">
        <ele>290.113080</ele>
        <time>2021-11-11T23:28:27.853Z</time>
      </trkpt>
      <trkpt lat="47.546128" lon="7.919617">
        <ele>289.964947</ele>
        <time>2021-11-11T23:28:35.093Z</time>
      </trkpt>
      <trkpt lat="47.546262" lon="7.919081">
        <ele>289.849420</ele>
        <time>2021-11-11T23:28:41.142Z</time>
      </trkpt>
      <trkpt lat="47.546821" lon="7.916867">
        <ele>289.171152</ele>
        <time>2021-11-11T23:29:01.874Z</time>
      </trkpt>
      <trkpt lat="47.547032" lon="7.916218">
        <ele>288.910461</ele>
        <time>2021-11-11T23:29:08.217Z</time>
      </trkpt>
      <trkpt lat="47.547091" lon="7.916039">
        <ele>288.838372</ele>
        <time>2021-11-11T23:29:09.942Z</time>
      </trkpt>
      <trkpt lat="47.547113" lon="7.915971">
        <ele>288.811083</ele>
        <time>2021-11-11T23:29:10.532Z</time>
      </trkpt>
      <trkpt lat="47.547385" lon="7.915191">
        <ele>288.725381</ele>
        <time>2021-11-11T23:29:18.947Z</time>
      </trkpt>
      <trkpt lat="47.547423" lon="7.915080">
        <ele>288.742695</ele>
        <time>2021-11-11T23:29:20.032Z</time>
      </trkpt>
      <trkpt lat="47.547994" lon="7.913433">
        <ele>289.000267</ele>
        <time>2021-11-11T23:29:39.779Z</time>
      </trkpt>
      <trkpt lat="47.548027" lon="7.913334">
        <ele>289.015627</ele>
        <time>2021-11-11T23:29:41.156Z</time>
      </trkpt>
      <trkpt lat="47.548412" lon="7.912168">
        <ele>289.162059</ele>
        <time>2021-11-11T23:29:57.419Z</time>
      </trkpt>
      <trkpt lat="47.549012" lon="7.910340">
        <ele>288.854508</ele>
        <time>2021-11-11T23:30:16.507Z</time>
      </trkpt>
      <trkpt lat="47.549102" lon="7.910058">
        <ele>288.587763</ele>
        <time>2021-11-11T23:30:18.954Z</time>
      </trkpt>
      <trkpt lat="47.549136" lon="7.910092">
        <ele>288.535794</ele>
        <time>2021-11-11T23:30:19.433Z</time>
      </trkpt>
      <trkpt lat="47.549136" lon="7.910092">
        <ele>288.535794</ele>
        <time>2021-11-11T23:30:19.436Z</time>
      </trkpt>
      <trkpt lat="47.549325" lon="7.910269">
        <ele>288.252518</ele>
        <time>2021-11-11T23:30:22.110Z</time>
      </trkpt>
      <trkpt lat="47.549760" lon="7.910718">
        <ele>287.580844</ele>
        <time>2021-11-11T23:30:28.051Z</time>
      </trkpt>
      <trkpt lat="47.549965" lon="7.910843">
        <ele>287.299987</ele>
        <time>2021-11-11T23:30:30.740Z</time>
      </trkpt>
      <trkpt lat="47.550034" lon="7.910847">
        <ele>287.212502</ele>
        <time>2021-11-11T23:30:31.416Z</time>
      </trkpt>
      <trkpt lat="47.550092" lon="7.910825">
        <ele>287.136650</ele>
        <time>2021-11-11T23:30:32.101Z</time>
      </trkpt>
      <trkpt lat="47.550128" lon="7.910795">
        <ele>287.084321</ele>
        <time>2021-11-11T23:30:32.571Z</time>
      </trkpt>
      <trkpt lat="47.550799" lon="7.909952">
        <ele>285.941052</ele>
        <time>2021-11-11T23:30:42.517Z</time>
      </trkpt>
      <trkpt lat="47.551318" lon="7.909453">
        <ele>285.136329</ele>
        <time>2021-11-11T23:30:49.731Z</time>
      </trkpt>
      <trkpt lat="47.551713" lon="7.909099">
        <ele>284.637056</ele>
        <time>2021-11-11T23:30:55.932Z</time>
      </trkpt>
      <trkpt lat="47.552605" lon="7.908430">
        <ele>284.104402</ele>
        <time>2021-11-11T23:31:09.105Z</time>
      </trkpt>
      <trkpt lat="47.553580" lon="7.907784">
        <ele>283.630817</ele>
        <time>2021-11-11T23:31:23.495Z</time>
      </trkpt>
      <trkpt lat="47.554205" lon="7.907384">
        <ele>283.430177</ele>
        <time>2021-11-11T23:31:32.699Z</time>
      </trkpt>
      <trkpt lat="47.554352" lon="7.907309">
        <ele>283.384358</ele>
        <time>2021-11-11T23:31:34.800Z</time>
      </trkpt>
      <trkpt lat="47.554446" lon="7.907261">
        <ele>283.355057</ele>
        <time>2021-11-11T23:31:36.330Z</time>
      </trkpt>
      <trkpt lat="47.554624" lon="7.907180">
        <ele>283.300181</ele>
        <time>2021-11-11T23:31:38.955Z</time>
      </trkpt>
      <trkpt lat="47.554778" lon="7.907115">
        <ele>283.252990</ele>
        <time>2021-11-11T23:31:41.370Z</time>
      </trkpt>
      <trkpt lat="47.554893" lon="7.907083">
        <ele>283.218930</ele>
        <time>2021-11-11T23:31:43.067Z</time>
      </trkpt>
      <trkpt lat="47.555024" lon="7.907046">
        <ele>283.222676</ele>
        <time>2021-11-11T23:31:45.031Z</time>
      </trkpt>
      <trkpt lat="47.555246" lon="7.906976">
        <ele>283.229051</ele>
        <time>2021-11-11T23:31:48.345Z</time>
      </trkpt>
      <trkpt lat="47.555785" lon="7.906833">
        <ele>283.244431</ele>
        <time>2021-11-11T23:31:56.108Z</time>
      </trkpt>
      <trkpt lat="47.555970" lon="7.906757">
        <ele>283.249823</ele>
        <time>2021-11-11T23:31:59.205Z</time>
      </trkpt>
      <trkpt lat="47.556033" lon="7.906729">
        <ele>283.251670</ele>
        <time>2021-11-11T23:32:00.232Z</time>
      </trkpt>
      <trkpt lat="47.556403" lon="7.906565">
        <ele>283.262518</ele>
        <time>2021-11-11T23:32:08.249Z</time>
      </trkpt>
      <trkpt lat="47.556605" lon="7.906440">
        <ele>283.268666</ele>
        <time>2021-11-11T23:32:11.791Z</time>
      </trkpt>
      <trkpt lat="47.556721" lon="7.906335">
        <ele>283.331321</ele>
        <time>2021-11-11T23:32:13.840Z</time>
      </trkpt>
      <trkpt lat="47.556784" lon="7.906271">
        <ele>283.374562</ele>
        <time>2021-11-11T23:32:14.772Z</time>
      </trkpt>
      <trkpt lat="47.557052" lon="7.905938">
        <ele>283.572559</ele>
        <time>2021-11-11T23:32:20.242Z</time>
      </trkpt>
      <trkpt lat="47.557123" lon="7.905856">
        <ele>283.623518</ele>
        <time>2021-11-11T23:32:21.921Z</time>
      </trkpt>
      <trkpt lat="47.557415" lon="7.905635">
        <ele>283.809135</ele>
        <time>2021-11-11T23:32:26.813Z</time>
      </trkpt>
      <trkpt lat="47.557496" lon="7.905516">
        <ele>283.873706</ele>
        <time>2021-11-11T23:32:28.848Z</time>
      </trkpt>
      <trkpt lat="47.557570" lon="7.905574">
        <ele>283.921097</ele>
        <time>2021-11-11T23:32:29.999Z</time>
      </trkpt>
      <trkpt lat="47.557619" lon="7.905585">
        <ele>283.949152</ele>
        <time>2021-11-11T23:32:30.628Z</time>
      </trkpt>
      <trkpt lat="47.557662" lon="7.905584">
        <ele>283.973498</ele>
        <time>2021-11-11T23:32:31.749Z</time>
      </trkpt>
      <trkpt lat="47.557996" lon="7.905521">
        <ele>284.164102</ele>
        <time>2021-11-11T23:32:37.617Z</time>
      </trkpt>
      <trkpt lat="47.558134" lon="7.905495">
        <ele>284.242854</ele>
        <time>2021-11-11T23:32:41.246Z</time>
      </trkpt>
      <trkpt lat="47.558813" lon="7.905636">
        <ele>285.179370</ele>
        <time>2021-11-11T23:32:55.171Z</time>
      </trkpt>
      <trkpt lat="47.559050" lon="7.905765">
        <ele>285.550573</ele>
        <time>2021-11-11T23:32:59.506Z</time>
      </trkpt>
      <trkpt lat="47.559051" lon="7.905731">
        <ele>285.584338</ele>
        <time>2021-11-11T23:33:00.708Z</time>
      </trkpt>
      <trkpt lat="47.559060" lon="7.905532">
        <ele>285.782218</ele>
        <time>2021-11-11T23:33:04.218Z</time>
      </trkpt>
      <trkpt lat="47.559106" lon="7.904506">
        <ele>286.802403</ele>
        <time>2021-11-11T23:33:22.649Z</time>
      </trkpt>
      <trkpt lat="47.559090" lon="7.904206">
        <ele>287.143633</ele>
        <time>2021-11-11T23:33:27.698Z</time>
      </trkpt>
      <trkpt lat="47.559120" lon="7.904152">
        <ele>287.230551</ele>
        <time>2021-11-11T23:33:29.585Z</time>
      </trkpt>
      <trkpt lat="47.559151" lon="7.904049">
        <ele>287.370697</ele>
        <time>2021-11-11T23:33:31.820Z</time>
      </trkpt>
      <trkpt lat="47.559426" lon="7.902929">
        <ele>288.851729</ele>
        <time>2021-11-11T23:33:53.734Z</time>
      </trkpt>
      <trkpt lat="47.559605" lon="7.902200">
        <ele>289.815721</ele>
        <time>2021-11-11T23:34:07.675Z</time>
      </trkpt>
      <trkpt lat="47.559887" lon="7.901206">
        <ele>291.774050</ele>
        <time>2021-11-11T23:34:28.772Z</time>
      </trkpt>
      <trkpt lat="47.560140" lon="7.900546">
        <ele>293.357220</ele>
        <time>2021-11-11T23:34:45.662Z</time>
      </trkpt>
      <trkpt lat="47.560252" lon="7.900273">
        <ele>294.023589</ele>
        <time>2021-11-11T23:34:52.911Z</time>
      </trkpt>
      <trkpt lat="47.560503" lon="7.899955">
        <ele>295.044250</ele>
        <time>2021-11-11T23:35:04.015Z</time>
      </trkpt>
      <trkpt lat="47.560560" lon="7.899898">
        <ele>295.256785</ele>
        <time>2021-11-11T23:35:06.833Z</time>
      </trkpt>
      <trkpt lat="47.560614" lon="7.899831">
        <ele>295.474464</ele>
        <time>2021-11-11T23:35:09.272Z</time>
      </trkpt>
      <trkpt lat="47.560752" lon="7.899659">
        <ele>296.160561</ele>
        <time>2021-11-11T23:35:15.391Z</time>
      </trkpt>
      <trkpt lat="47.561186" lon="7.899144">
        <ele>298.847546</ele>
        <time>2021-11-11T23:35:36.373Z</time>
      </trkpt>
      <trkpt lat="47.561263" lon="7.899045">
        <ele>299.340202</ele>
        <time>2021-11-11T23:35:40.115Z</time>
      </trkpt>
      <trkpt lat="47.561688" lon="7.898494">
        <ele>302.069195</ele>
        <time>2021-11-11T23:36:03.714Z</time>
      </trkpt>
      <trkpt lat="47.562186" lon="7.897876">
        <ele>305.393509</ele>
        <time>2021-11-11T23:36:30.496Z</time>
      </trkpt>
      <trkpt lat="47.562606" lon="7.897223">
        <ele>309.100042</ele>
        <time>2021-11-11T23:36:56.334Z</time>
      </trkpt>
      <trkpt lat="47.562667" lon="7.897011">
        <ele>310.046968</ele>
        <time>2021-11-11T23:37:03.695Z</time>
      </trkpt>
      <trkpt lat="47.563035" lon="7.895741">
        <ele>315.682186</ele>
        <time>2021-11-11T23:37:40.481Z</time>
      </trkpt>
      <trkpt lat="47.563087" lon="7.895432">
        <ele>316.785822</ele>
        <time>2021-11-11T23:37:50.297Z</time>
      </trkpt>
      <trkpt lat="47.563106" lon="7.895315">
        <ele>317.202861</ele>
        <time>2021-11-11T23:37:53.079Z</time>
      </trkpt>
      <trkpt lat="47.563147" lon="7.894977">
        <ele>318.392972</ele>
        <time>2021-11-11T23:38:02.971Z</time>
      </trkpt>
      <trkpt lat="47.563317" lon="7.893307">
        <ele>324.245812</ele>
        <time>2021-11-11T23:38:42.180Z</time>
      </trkpt>
      <trkpt lat="47.563330" lon="7.892455">
        <ele>325.701699</ele>
        <time>2021-11-11T23:38:57.588Z</time>
      </trkpt>
      <trkpt lat="47.563136" lon="7.890927">
        <ele>327.880783</ele>
        <time>2021-11-11T23:39:20.299Z</time>
      </trkpt>
      <trkpt lat="47.562987" lon="7.890433">
        <ele>328.496811</ele>
        <time>2021-11-11T23:39:27.008Z</time>
      </trkpt>
      <trkpt lat="47.562933" lon="7.890330">
        <ele>328.560528</ele>
        <time>2021-11-11T23:39:28.517Z</time>
      </trkpt>
      <trkpt lat="47.562868" lon="7.890182">
        <ele>328.646791</ele>
        <time>2021-11-11T23:39:30.569Z</time>
      </trkpt>
      <trkpt lat="47.563039" lon="7.889397">
        <ele>329.049748</ele>
        <time>2021-11-11T23:39:40.090Z</time>
      </trkpt>
      <trkpt lat="47.563560" lon="7.887288">
        <ele>330.522267</ele>
        <time>2021-11-11T23:40:06.406Z</time>
      </trkpt>
      <trkpt lat="47.563657" lon="7.886867">
        <ele>330.931948</ele>
        <time>2021-11-11T23:40:12.402Z</time>
      </trkpt>
      <trkpt lat="47.563909" lon="7.886506">
        <ele>331.410282</ele>
        <time>2021-11-11T23:40:19.691Z</time>
      </trkpt>
      <trkpt lat="47.565560" lon="7.884206">
        <ele>335.884877</ele>
        <time>2021-11-11T23:41:12.073Z</time>
      </trkpt>
      <trkpt lat="47.566604" lon="7.882741">
        <ele>339.758429</ele>
        <time>2021-11-11T23:41:49.567Z</time>
      </trkpt>
      <trkpt lat="47.566690" lon="7.882620">
        <ele>340.082256</ele>
        <time>2021-11-11T23:41:52.952Z</time>
      </trkpt>
      <trkpt lat="47.567774" lon="7.881098">
        <ele>343.225498</ele>
        <time>2021-11-11T23:42:31.581Z</time>
      </trkpt>
      <trkpt lat="47.568855" lon="7.879614">
        <ele>343.936401</ele>
        <time>2021-11-11T23:42:55.984Z</time>
      </trkpt>
      <trkpt lat="47.569889" lon="7.878149">
        <ele>342.598091</ele>
        <time>2021-11-11T23:43:12.276Z</time>
      </trkpt>
      <trkpt lat="47.569974" lon="7.878003">
        <ele>342.393574</ele>
        <time>2021-11-11T23:43:13.712Z</time>
      </trkpt>
      <trkpt lat="47.570440" lon="7.877017">
        <ele>341.116851</ele>
        <time>2021-11-11T23:43:22.909Z</time>
      </trkpt>
      <trkpt lat="47.570733" lon="7.876421">
        <ele>340.373752</ele>
        <time>2021-11-11T23:43:28.714Z</time>
      </trkpt>
      <trkpt lat="47.571754" lon="7.874288">
        <ele>338.289937</ele>
        <time>2021-11-11T23:43:49.806Z</time>
      </trkpt>
      <trkpt lat="47.572765" lon="7.872183">
        <ele>336.908300</ele>
        <time>2021-11-11T23:44:11.485Z</time>
      </trkpt>
      <trkpt lat="47.572867" lon="7.871849">
        <ele>337.077461</ele>
        <time>2021-11-11T23:44:14.935Z</time>
      </trkpt>
      <trkpt lat="47.573081" lon="7.871074">
        <ele>337.463836</ele>
        <time>2021-11-11T23:44:24.032Z</time>
      </trkpt>
      <trkpt lat="47.573242" lon="7.870224">
        <ele>337.871186</ele>
        <time>2021-11-11T23:44:35.512Z</time>
      </trkpt>
      <trkpt lat="47.573270" lon="7.869980">
        <ele>337.985383</ele>
        <time>2021-11-11T23:44:38.958Z</time>
      </trkpt>
      <trkpt lat="47.573327" lon="7.869478">
        <ele>338.204272</ele>
        <time>2021-11-11T23:44:46.454Z</time>
      </trkpt>
      <trkpt lat="47.573388" lon="7.869020">
        <ele>338.382075</ele>
        <time>2021-11-11T23:44:53.390Z</time>
      </trkpt>
      <trkpt lat="47.573580" lon="7.868234">
        <ele>338.700455</ele>
        <time>2021-11-11T23:45:04.643Z</time>
      </trkpt>
      <trkpt lat="47.573902" lon="7.867343">
        <ele>339.085426</ele>
        <time>2021-11-11T23:45:15.827Z</time>
      </trkpt>
      <trkpt lat="47.574034" lon="7.867032">
        <ele>338.554198</ele>
        <time>2021-11-11T23:45:18.883Z</time>
      </trkpt>
      <trkpt lat="47.574854" lon="7.865675">
        <ele>333.520552</ele>
        <time>2021-11-11T23:45:31.222Z</time>
      </trkpt>
      <trkpt lat="47.575475" lon="7.864127">
        <ele>325.423642</ele>
        <time>2021-11-11T23:45:41.948Z</time>
      </trkpt>
      <trkpt lat="47.575527" lon="7.863840">
        <ele>323.810035</ele>
        <time>2021-11-11T23:45:43.765Z</time>
      </trkpt>
      <trkpt lat="47.575529" lon="7.863765">
        <ele>323.402474</ele>
        <time>2021-11-11T23:45:44.187Z</time>
      </trkpt>
      <trkpt lat="47.575529" lon="7.863690">
        <ele>322.995232</ele>
        <time>2021-11-11T23:45:44.615Z</time>
      </trkpt>
      <trkpt lat="47.575296" lon="7.862440">
        <ele>316.440438</ele>
        <time>2021-11-11T23:45:52.296Z</time>
      </trkpt>
      <trkpt lat="47.575288" lon="7.862118">
        <ele>315.323317</ele>
        <time>2021-11-11T23:45:54.173Z</time>
      </trkpt>
      <trkpt lat="47.575364" lon="7.861960">
        <ele>314.650553</ele>
        <time>2021-11-11T23:45:55.395Z</time>
      </trkpt>
      <trkpt lat="47.575373" lon="7.861941">
        <ele>314.570064</ele>
        <time>2021-11-11T23:45:55.535Z</time>
      </trkpt>
      <trkpt lat="47.576083" lon="7.861029">
        <ele>309.741925</ele>
        <time>2021-11-11T23:46:04.465Z</time>
      </trkpt>
      <trkpt lat="47.576292" lon="7.860775">
        <ele>308.353007</ele>
        <time>2021-11-11T23:46:07.307Z</time>
      </trkpt>
      <trkpt lat="47.576157" lon="7.860617">
        <ele>308.009571</ele>
        <time>2021-11-11T23:46:10.410Z</time>
      </trkpt>
      <trkpt lat="47.576060" lon="7.860505">
        <ele>307.958641</ele>
        <time>2021-11-11T23:46:12.406Z</time>
      </trkpt>
      <trkpt lat="47.575661" lon="7.860260">
        <ele>307.779747</ele>
        <time>2021-11-11T23:46:19.786Z</time>
      </trkpt>
      <trkpt lat="47.575482" lon="7.860014">
        <ele>307.678637</ele>
        <time>2021-11-11T23:46:24.777Z</time>
      </trkpt>
      <trkpt lat="47.575090" lon="7.859216">
        <ele>307.402787</ele>
        <time>2021-11-11T23:46:39.611Z</time>
      </trkpt>
      <trkpt lat="47.574369" lon="7.857634">
        <ele>307.516920</ele>
        <time>2021-11-11T23:47:08.391Z</time>
      </trkpt>
      <trkpt lat="47.574089" lon="7.857293">
        <ele>307.586439</ele>
        <time>2021-11-11T23:47:15.321Z</time>
      </trkpt>
      <trkpt lat="47.573544" lon="7.856804">
        <ele>307.576232</ele>
        <time>2021-11-11T23:47:27.475Z</time>
      </trkpt>
      <trkpt lat="47.572923" lon="7.856141">
        <ele>307.346888</ele>
        <time>2021-11-11T23:47:42.617Z</time>
      </trkpt>
      <trkpt lat="47.572248" lon="7.855212">
        <ele>307.244119</ele>
        <time>2021-11-11T23:47:59.630Z</time>
      </trkpt>
      <trkpt lat="47.571837" lon="7.854626">
        <ele>307.701765</ele>
        <time>2021-11-11T23:48:10.550Z</time>
      </trkpt>
      <trkpt lat="47.571655" lon="7.854341">
        <ele>307.914228</ele>
        <time>2021-11-11T23:48:16.284Z</time>
      </trkpt>
      <trkpt lat="47.571552" lon="7.854175">
        <ele>308.036333</ele>
        <time>2021-11-11T23:48:20.054Z</time>
      </trkpt>
      <trkpt lat="47.571426" lon="7.854000">
        <ele>308.174900</ele>
        <time>2021-11-11T23:48:24.146Z</time>
      </trkpt>
      <trkpt lat="47.570995" lon="7.853612">
        <ele>308.637653</ele>
        <time>2021-11-11T23:48:38.063Z</time>
      </trkpt>
      <trkpt lat="47.569365" lon="7.852218">
        <ele>314.908792</ele>
        <time>2021-11-11T23:49:43.618Z</time>
      </trkpt>
      <trkpt lat="47.568391" lon="7.851304">
        <ele>318.190055</ele>
        <time>2021-11-11T23:50:23.107Z</time>
      </trkpt>
      <trkpt lat="47.568211" lon="7.851157">
        <ele>318.775022</ele>
        <time>2021-11-11T23:50:28.771Z</time>
      </trkpt>
      <trkpt lat="47.568037" lon="7.851058">
        <ele>319.305521</ele>
        <time>2021-11-11T23:50:34.293Z</time>
      </trkpt>
      <trkpt lat="47.567877" lon="7.850995">
        <ele>319.735262</ele>
        <time>2021-11-11T23:50:38.263Z</time>
      </trkpt>
      <trkpt lat="47.566633" lon="7.850244">
        <ele>320.384250</ele>
        <time>2021-11-11T23:51:09.443Z</time>
      </trkpt>
      <trkpt lat="47.565983" lon="7.850065">
        <ele>320.492105</ele>
        <time>2021-11-11T23:51:21.171Z</time>
      </trkpt>
      <trkpt lat="47.565717" lon="7.849504">
        <ele>320.277238</ele>
        <time>2021-11-11T23:51:29.555Z</time>
      </trkpt>
      <trkpt lat="47.564942" lon="7.849082">
        <ele>319.893779</ele>
        <time>2021-11-11T23:51:44.875Z</time>
      </trkpt>
      <trkpt lat="47.564792" lon="7.849024">
        <ele>319.821782</ele>
        <time>2021-11-11T23:51:47.611Z</time>
      </trkpt>
      <trkpt lat="47.564494" lon="7.848931">
        <ele>319.709829</ele>
        <time>2021-11-11T23:51:53.842Z</time>
      </trkpt>
      <trkpt lat="47.564101" lon="7.848663">
        <ele>319.582857</ele>
        <time>2021-11-11T23:52:02.278Z</time>
      </trkpt>
      <trkpt lat="47.563893" lon="7.848372">
        <ele>319.498903</ele>
        <time>2021-11-11T23:52:08.282Z</time>
      </trkpt>
      <trkpt lat="47.563765" lon="7.848183">
        <ele>319.445870</ele>
        <time>2021-11-11T23:52:11.727Z</time>
      </trkpt>
      <trkpt lat="47.563680" lon="7.848098">
        <ele>319.415774</ele>
        <time>2021-11-11T23:52:14.274Z</time>
      </trkpt>
      <trkpt lat="47.563202" lon="7.847661">
        <ele>319.250932</ele>
        <time>2021-11-11T23:52:24.910Z</time>
      </trkpt>
      <trkpt lat="47.562617" lon="7.846359">
        <ele>317.487022</ele>
        <time>2021-11-11T23:52:42.688Z</time>
      </trkpt>
      <trkpt lat="47.562285" lon="7.845586">
        <ele>316.400004</ele>
        <time>2021-11-11T23:52:52.035Z</time>
      </trkpt>
      <trkpt lat="47.561769" lon="7.844701">
        <ele>314.684684</ele>
        <time>2021-11-11T23:53:03.902Z</time>
      </trkpt>
      <trkpt lat="47.561657" lon="7.844522">
        <ele>314.305361</ele>
        <time>2021-11-11T23:53:06.297Z</time>
      </trkpt>
      <trkpt lat="47.561160" lon="7.843842">
        <ele>312.747676</ele>
        <time>2021-11-11T23:53:16.789Z</time>
      </trkpt>
      <trkpt lat="47.561003" lon="7.843711">
        <ele>312.332769</ele>
        <time>2021-11-11T23:53:19.818Z</time>
      </trkpt>
      <trkpt lat="47.560934" lon="7.843550">
        <ele>312.036394</ele>
        <time>2021-11-11T23:53:21.792Z</time>
      </trkpt>
      <trkpt lat="47.560812" lon="7.843560">
        <ele>311.852804</ele>
        <time>2021-11-11T23:53:23.211Z</time>
      </trkpt>
      <trkpt lat="47.560515" lon="7.843379">
        <ele>311.530039</ele>
        <time>2021-11-11T23:53:26.867Z</time>
      </trkpt>
      <trkpt lat="47.560430" lon="7.843341">
        <ele>311.440805</ele>
        <time>2021-11-11T23:53:28.011Z</time>
      </trkpt>
      <trkpt lat="47.560338" lon="7.843341">
        <ele>311.348338</ele>
        <time>2021-11-11T23:53:29.028Z</time>
      </trkpt>
      <trkpt lat="47.560209" lon="7.843393">
        <ele>311.213972</ele>
        <time>2021-11-11T23:53:30.656Z</time>
      </trkpt>
      <trkpt lat="47.560139" lon="7.843433">
        <ele>311.138567</ele>
        <time>2021-11-11T23:53:31.670Z</time>
      </trkpt>
      <trkpt lat="47.559847" lon="7.843604">
        <ele>310.822999</ele>
        <time>2021-11-11T23:53:35.492Z</time>
      </trkpt>
      <trkpt lat="47.559583" lon="7.843813">
        <ele>310.522168</ele>
        <time>2021-11-11T23:53:39.216Z</time>
      </trkpt>
      <trkpt lat="47.559234" lon="7.844158">
        <ele>310.117057</ele>
        <time>2021-11-11T23:53:45.043Z</time>
      </trkpt>
      <trkpt lat="47.559158" lon="7.844233">
        <ele>310.100272</ele>
        <time>2021-11-11T23:53:46.431Z</time>
      </trkpt>
      <trkpt lat="47.559109" lon="7.844229">
        <ele>310.091252</ele>
        <time>2021-11-11T23:53:47.022Z</time>
      </trkpt>
      <trkpt lat="47.559060" lon="7.844197">
        <ele>310.081409</ele>
        <time>2021-11-11T23:53:47.655Z</time>
      </trkpt>
      <trkpt lat="47.558884" lon="7.843836">
        <ele>310.026164</ele>
        <time>2021-11-11T23:53:51.804Z</time>
      </trkpt>
      <trkpt lat="47.558555" lon="7.843392">
        <ele>309.944367</ele>
        <time>2021-11-11T23:53:57.843Z</time>
      </trkpt>
      <trkpt lat="47.558471" lon="7.843365">
        <ele>309.928568</ele>
        <time>2021-11-11T23:53:59.105Z</time>
      </trkpt>
      <trkpt lat="47.558405" lon="7.843371">
        <ele>309.916413</ele>
        <time>2021-11-11T23:54:00.278Z</time>
      </trkpt>
      <trkpt lat="47.558136" lon="7.843582">
        <ele>309.860466</ele>
        <time>2021-11-11T23:54:04.482Z</time>
      </trkpt>
      <trkpt lat="47.557967" lon="7.843683">
        <ele>309.826970</ele>
        <time>2021-11-11T23:54:07.180Z</time>
      </trkpt>
      <trkpt lat="47.557846" lon="7.843756">
        <ele>309.802955</ele>
        <time>2021-11-11T23:54:09.024Z</time>
      </trkpt>
      <trkpt lat="47.557759" lon="7.843839">
        <ele>309.805749</ele>
        <time>2021-11-11T23:54:10.801Z</time>
      </trkpt>
      <trkpt lat="47.557715" lon="7.843940">
        <ele>309.843276</ele>
        <time>2021-11-11T23:54:12.030Z</time>
      </trkpt>
      <trkpt lat="47.557560" lon="7.844433">
        <ele>310.013052</ele>
        <time>2021-11-11T23:54:17.989Z</time>
      </trkpt>
      <trkpt lat="47.557282" lon="7.844832">
        <ele>310.192074</ele>
        <time>2021-11-11T23:54:24.421Z</time>
      </trkpt>
      <trkpt lat="47.557134" lon="7.845095">
        <ele>310.298970</ele>
        <time>2021-11-11T23:54:28.196Z</time>
      </trkpt>
      <trkpt lat="47.556636" lon="7.845928">
        <ele>310.676190</ele>
        <time>2021-11-11T23:54:41.047Z</time>
      </trkpt>
      <trkpt lat="47.556060" lon="7.846859">
        <ele>311.555667</ele>
        <time>2021-11-11T23:54:57.174Z</time>
      </trkpt>
      <trkpt lat="47.555990" lon="7.846965">
        <ele>311.658937</ele>
        <time>2021-11-11T23:54:59.158Z</time>
      </trkpt>
      <trkpt lat="47.555990" lon="7.846965">
        <ele>311.658937</ele>
        <time>2021-11-11T23:54:59.169Z</time>
      </trkpt>
      <trkpt lat="47.555966" lon="7.846932">
        <ele>311.692719</ele>
        <time>2021-11-11T23:54:59.746Z</time>
      </trkpt>
      <trkpt lat="47.555892" lon="7.846856">
        <ele>311.785620</ele>
        <time>2021-11-11T23:55:01.303Z</time>
      </trkpt>
      <trkpt lat="47.555855" lon="7.846815">
        <ele>311.833291</ele>
        <time>2021-11-11T23:55:02.213Z</time>
      </trkpt>
      <trkpt lat="47.555727" lon="7.846715">
        <ele>311.982594</ele>
        <time>2021-11-11T23:55:05.215Z</time>
      </trkpt>
      <trkpt lat="47.555199" lon="7.846687">
        <ele>312.546450</ele>
        <time>2021-11-11T23:55:15.183Z</time>
      </trkpt>
      <trkpt lat="47.555068" lon="7.846672">
        <ele>312.733000</ele>
        <time>2021-11-11T23:55:18.044Z</time>
      </trkpt>
      <trkpt lat="47.554995" lon="7.846915">
        <ele>312.987869</ele>
        <time>2021-11-11T23:55:21.768Z</time>
      </trkpt>
      <trkpt lat="47.554991" lon="7.846925">
        <ele>312.999008</ele>
        <time>2021-11-11T23:55:21.928Z</time>
      </trkpt>
      <trkpt lat="47.554892" lon="7.847148">
        <ele>313.254774</ele>
        <time>2021-11-11T23:55:25.738Z</time>
      </trkpt>
      <trkpt lat="47.554759" lon="7.847388">
        <ele>313.552338</ele>
        <time>2021-11-11T23:55:30.060Z</time>
      </trkpt>
      <trkpt lat="47.554618" lon="7.847626">
        <ele>313.855794</ele>
        <time>2021-11-11T23:55:34.618Z</time>
      </trkpt>
      <trkpt lat="47.554465" lon="7.847858">
        <ele>314.166613</ele>
        <time>2021-11-11T23:55:39.254Z</time>
      </trkpt>
      <trkpt lat="47.554351" lon="7.848049">
        <ele>314.410936</ele>
        <time>2021-11-11T23:55:42.713Z</time>
      </trkpt>
      <trkpt lat="47.554269" lon="7.848188">
        <ele>314.587839</ele>
        <time>2021-11-11T23:55:45.247Z</time>
      </trkpt>
      <trkpt lat="47.554209" lon="7.848300">
        <ele>314.724860</ele>
        <time>2021-11-11T23:55:47.328Z</time>
      </trkpt>
      <trkpt lat="47.554055" lon="7.848586">
        <ele>315.081089</ele>
        <time>2021-11-11T23:55:52.197Z</time>
      </trkpt>
      <trkpt lat="47.553725" lon="7.849291">
        <ele>316.009201</ele>
        <time>2021-11-11T23:56:03.562Z</time>
      </trkpt>
      <trkpt lat="47.553605" lon="7.849629">
        <ele>316.422341</ele>
        <time>2021-11-11T23:56:09.017Z</time>
      </trkpt>
      <trkpt lat="47.553537" lon="7.849904">
        <ele>316.739164</ele>
        <time>2021-11-11T23:56:13.208Z</time>
      </trkpt>
      <trkpt lat="47.553380" lon="7.850453">
        <ele>317.384168</ele>
        <time>2021-11-11T23:56:22.060Z</time>
      </trkpt>
      <trkpt lat="47.553344" lon="7.850525">
        <ele>317.481101</ele>
        <time>2021-11-11T23:56:23.326Z</time>
      </trkpt>
      <trkpt lat="47.553283" lon="7.850634">
        <ele>317.634277</ele>
        <time>2021-11-11T23:56:25.379Z</time>
      </trkpt>
      <trkpt lat="47.552876" lon="7.851300">
        <ele>319.148065</ele>
        <time>2021-11-11T23:56:39.212Z</time>
      </trkpt>
      <trkpt lat="47.552678" lon="7.851709">
        <ele>320.119199</ele>
        <time>2021-11-11T23:56:47.894Z</time>
      </trkpt>
      <trkpt lat="47.552449" lon="7.852231">
        <ele>321.320411</ele>
        <time>2021-11-11T23:56:59.194Z</time>
      </trkpt>
      <trkpt lat="47.552272" lon="7.852167">
        <ele>321.841256</ele>
        <time>2021-11-11T23:57:04.594Z</time>
      </trkpt>
      <trkpt lat="47.552097" lon="7.852063">
        <ele>322.380277</ele>
        <time>2021-11-11T23:57:09.841Z</time>
      </trkpt>
      <trkpt lat="47.552042" lon="7.852007">
        <ele>322.571053</ele>
        <time>2021-11-11T23:57:12.241Z</time>
      </trkpt>
      <trkpt lat="47.551925" lon="7.851845">
        <ele>323.028840</ele>
        <time>2021-11-11T23:57:16.507Z</time>
      </trkpt>
      <trkpt lat="47.551830" lon="7.851603">
        <ele>323.607929</ele>
        <time>2021-11-11T23:57:22.329Z</time>
      </trkpt>
      <trkpt lat="47.551660" lon="7.851725">
        <ele>324.188937</ele>
        <time>2021-11-11T23:57:27.563Z</time>
      </trkpt>
      <trkpt lat="47.551516" lon="7.851950">
        <ele>324.832650</ele>
        <time>2021-11-11T23:57:34.121Z</time>
      </trkpt>
      <trkpt lat="47.550221" lon="7.853833">
        <ele>329.408856</ele>
        <time>2021-11-11T23:58:21.413Z</time>
      </trkpt>
      <trkpt lat="47.549883" lon="7.854434">
        <ele>330.138630</ele>
        <time>2021-11-11T23:58:31.533Z</time>
      </trkpt>
      <trkpt lat="47.549566" lon="7.855225">
        <ele>330.996803</ele>
        <time>2021-11-11T23:58:45.392Z</time>
      </trkpt>
      <trkpt lat="47.549362" lon="7.855774">
        <ele>331.067108</ele>
        <time>2021-11-11T23:58:53.880Z</time>
      </trkpt>
      <trkpt lat="47.548887" lon="7.857308">
        <ele>331.042998</ele>
        <time>2021-11-11T23:59:15.988Z</time>
      </trkpt>
      <trkpt lat="47.548743" lon="7.857692">
        <ele>331.039283</ele>
        <time>2021-11-11T23:59:21.960Z</time>
      </trkpt>
      <trkpt lat="47.548701" lon="7.857893">
        <ele>331.139731</ele>
        <time>2021-11-11T23:59:24.931Z</time>
      </trkpt>
      <trkpt lat="47.548686" lon="7.857973">
        <ele>331.179369</ele>
        <time>2021-11-11T23:59:26.055Z</time>
      </trkpt>
      <trkpt lat="47.548611" lon="7.858381">
        <ele>331.381238</ele>
        <time>2021-11-11T23:59:32.269Z</time>
      </trkpt>
      <trkpt lat="47.548334" lon="7.859801">
        <ele>332.086876</ele>
        <time>2021-11-11T23:59:55.306Z</time>
      </trkpt>
      <trkpt lat="47.548049" lon="7.860929">
        <ele>333.142257</ele>
        <time>2021-11-12T00:00:16.325Z</time>
      </trkpt>
      <trkpt lat="47.547930" lon="7.861711">
        <ele>334.045863</ele>
        <time>2021-11-12T00:00:31.088Z</time>
      </trkpt>
      <trkpt lat="47.547568" lon="7.863151">
        <ele>335.533709</ele>
        <time>2021-11-12T00:01:00.216Z</time>
      </trkpt>
      <trkpt lat="47.547320" lon="7.863864">
        <ele>335.963178</ele>
        <time>2021-11-12T00:01:14.156Z</time>
      </trkpt>
      <trkpt lat="47.546974" lon="7.864423">
        <ele>336.369277</ele>
        <time>2021-11-12T00:01:24.979Z</time>
      </trkpt>
      <trkpt lat="47.546885" lon="7.864500">
        <ele>336.451034</ele>
        <time>2021-11-12T00:01:28.064Z</time>
      </trkpt>
      <trkpt lat="47.546894" lon="7.864837">
        <ele>336.631617</ele>
        <time>2021-11-12T00:01:31.948Z</time>
      </trkpt>
      <trkpt lat="47.546889" lon="7.865225">
        <ele>336.631828</ele>
        <time>2021-11-12T00:01:37.373Z</time>
      </trkpt>
      <trkpt lat="47.546819" lon="7.865489">
        <ele>336.468199</ele>
        <time>2021-11-12T00:01:41.318Z</time>
      </trkpt>
      <trkpt lat="47.546510" lon="7.865766">
        <ele>336.159522</ele>
        <time>2021-11-12T00:01:47.952Z</time>
      </trkpt>
      <trkpt lat="47.546327" lon="7.865959">
        <ele>335.967534</ele>
        <time>2021-11-12T00:01:51.467Z</time>
      </trkpt>
      <trkpt lat="47.546096" lon="7.866147">
        <ele>335.742276</ele>
        <time>2021-11-12T00:01:56.023Z</time>
      </trkpt>
      <trkpt lat="47.545240" lon="7.866887">
        <ele>335.386392</ele>
        <time>2021-11-12T00:02:12.696Z</time>
      </trkpt>
      <trkpt lat="47.545160" lon="7.866985">
        <ele>335.439611</ele>
        <time>2021-11-12T00:02:14.652Z</time>
      </trkpt>
      <trkpt lat="47.545003" lon="7.867278">
        <ele>335.569071</ele>
        <time>2021-11-12T00:02:20.320Z</time>
      </trkpt>
      <trkpt lat="47.544568" lon="7.867693">
        <ele>335.834328</ele>
        <time>2021-11-12T00:02:33.111Z</time>
      </trkpt>
      <trkpt lat="47.544469" lon="7.867776">
        <ele>335.892646</ele>
        <time>2021-11-12T00:02:35.973Z</time>
      </trkpt>
      <trkpt lat="47.544410" lon="7.867825">
        <ele>335.927323</ele>
        <time>2021-11-12T00:02:38.062Z</time>
      </trkpt>
      <trkpt lat="47.544246" lon="7.867967">
        <ele>336.024710</ele>
        <time>2021-11-12T00:02:42.745Z</time>
      </trkpt>
      <trkpt lat="47.544214" lon="7.867988">
        <ele>336.042653</ele>
        <time>2021-11-12T00:02:43.593Z</time>
      </trkpt>
      <trkpt lat="47.543801" lon="7.868269">
        <ele>336.124356</ele>
        <time>2021-11-12T00:02:55.194Z</time>
      </trkpt>
      <trkpt lat="47.543657" lon="7.868359">
        <ele>336.124356</ele>
        <time>2021-11-12T00:02:59.547Z</time>
      </trkpt>
      <trkpt lat="47.543201" lon="7.868657">
        <ele>336.124356</ele>
        <time>2021-11-12T00:03:09.981Z</time>
      </trkpt>
      <trkpt lat="47.543105" lon="7.868711">
        <ele>336.124356</ele>
        <time>2021-11-12T00:03:12.624Z</time>
      </trkpt>
      <trkpt lat="47.543049" lon="7.868759">
        <ele>336.124356</ele>
        <time>2021-11-12T00:03:14.002Z</time>
      </trkpt>
      <trkpt lat="47.542722" lon="7.869201">
        <ele>336.124356</ele>
        <time>2021-11-12T00:03:23.606Z</time>
      </trkpt>
      <trkpt lat="47.542696" lon="7.869257">
        <ele>336.124356</ele>
        <time>2021-11-12T00:03:24.352Z</time>
      </trkpt>
      <trkpt lat="47.542657" lon="7.869354">
        <ele>336.124356</ele>
        <time>2021-11-12T00:03:25.760Z</time>
      </trkpt>
      <trkpt lat="47.542561" lon="7.869486">
        <ele>336.124356</ele>
        <time>2021-11-12T00:03:28.497Z</time>
      </trkpt>
    </trkseg>
  </trk>
</gpx>